ECMWFFLT2_850_thetae_057.txt.gz
Theta_e
330 331 332 332 332 332 330 327 325 325 325 323 322 325 327 333 337 338 337 334 333 334 334 332 330 328 327 324 323 328 329 329 330 326 325 327 328 327 327 327 327 327 325 320 317 321 327 330 331 332 332 332 331 330 330 331 330 326 319 312 309 308
331 331 332 331 331 332 330 326 322 322 322 320 322 326 330 334 336 338 336 333 333 333 333 333 331 329 329 326 322 325 328 329 329 325 324 327 328 328 327 327 327 327 327 324 320 321 325 327 329 330 332 333 331 329 330 330 328 325 322 315 309 309
331 331 331 331 331 332 331 326 321 319 318 318 323 328 331 333 335 336 334 332 332 332 333 332 330 330 330 328 325 325 328 327 327 324 323 326 328 328 327 326 326 326 327 327 325 324 325 326 328 330 332 333 332 331 331 330 328 325 323 317 312 310
331 331 331 332 332 332 332 329 323 319 319 320 324 328 329 332 333 333 332 331 332 332 333 332 330 331 330 329 328 328 329 327 326 324 321 324 327 328 327 326 325 326 326 327 328 327 326 327 329 331 332 332 331 331 331 329 328 326 323 318 314 312
332 332 331 332 333 332 333 330 324 321 321 322 325 328 329 331 332 331 331 330 331 332 333 331 331 333 331 329 329 329 330 328 326 324 320 322 327 327 327 326 326 327 327 329 330 329 329 328 329 331 330 332 332 332 332 330 329 327 323 320 318 316
333 333 333 333 334 334 333 331 327 322 322 324 328 330 331 332 332 331 330 330 331 332 332 331 330 333 332 330 329 329 329 325 322 323 319 319 325 326 326 326 326 327 327 330 331 331 332 330 331 332 331 333 333 332 332 332 331 329 325 321 320 320
334 334 334 334 334 334 334 333 331 324 323 328 330 331 331 331 331 331 331 331 332 331 331 330 330 332 331 330 330 328 324 320 318 319 318 318 322 325 326 327 326 328 328 327 329 331 332 332 331 331 331 333 333 332 332 332 332 330 325 322 321 321
335 335 335 335 335 335 334 333 333 327 326 331 332 332 332 332 331 331 331 331 331 330 329 329 329 330 331 331 330 325 320 320 320 318 318 319 321 325 325 325 325 326 325 326 330 331 331 332 331 329 330 333 333 332 332 332 331 330 326 323 322 322
336 336 335 336 335 335 334 333 333 330 329 331 332 333 332 333 332 331 331 331 330 328 329 329 329 330 332 331 329 327 325 323 324 324 322 322 326 329 327 325 324 322 323 326 331 332 332 331 330 329 328 331 332 331 331 331 330 330 328 324 323 322
337 336 336 336 335 335 334 334 333 331 330 331 332 332 332 332 332 332 332 330 328 327 329 330 328 330 331 329 329 331 330 328 328 328 327 326 328 330 329 328 327 326 328 329 331 332 332 329 328 329 328 328 331 331 331 329 329 330 328 325 324 324
337 337 337 336 335 335 335 333 333 332 331 331 332 332 332 332 332 332 332 331 329 328 329 329 329 331 330 330 332 332 332 332 331 330 330 328 328 330 330 329 329 330 332 332 331 332 332 329 328 329 329 329 330 330 328 327 329 330 326 325 326 326
338 338 336 336 336 336 335 334 333 333 332 332 332 332 332 332 332 332 332 331 329 328 329 329 330 330 330 331 332 332 333 333 333 332 329 329 329 329 329 330 331 332 332 332 331 331 331 330 329 329 330 330 329 328 326 325 329 329 326 324 324 326
338 337 336 336 336 336 336 335 334 333 333 333 331 332 332 332 331 331 331 331 329 328 329 329 329 330 331 332 332 332 333 334 333 331 329 331 331 329 330 332 331 331 331 331 331 331 331 330 329 331 331 330 329 327 326 326 327 328 326 324 324 325
338 337 337 336 336 336 335 335 335 333 333 332 331 332 332 332 332 331 331 331 330 330 330 330 329 329 331 333 332 332 333 333 332 330 329 331 332 330 331 333 332 332 332 332 331 331 330 329 329 331 331 330 329 327 326 327 328 328 327 325 325 326
338 337 337 336 336 336 335 336 335 333 332 332 332 332 332 331 332 332 332 331 331 331 330 330 327 327 330 332 332 331 332 331 330 330 329 329 329 330 331 332 332 332 333 332 332 331 330 330 330 330 330 330 330 328 327 328 328 328 328 327 326 326
338 338 337 336 336 336 336 335 334 333 332 332 332 332 331 331 330 331 330 330 330 331 330 329 326 326 329 331 332 332 332 332 331 331 329 328 328 330 331 331 330 331 332 332 331 332 331 331 330 330 330 330 330 329 328 329 329 329 328 327 327 326
338 338 337 337 336 336 336 335 334 333 332 332 332 332 330 329 329 329 329 329 330 330 329 329 328 326 328 329 330 331 331 332 332 331 329 328 329 330 332 331 331 331 331 331 331 332 331 330 330 330 331 331 330 329 328 328 329 329 329 328 328 326
338 338 337 337 337 336 335 335 334 333 332 332 331 331 331 329 329 328 329 331 330 329 328 329 328 325 327 328 329 330 330 332 332 329 328 328 329 331 332 332 332 332 331 331 331 331 331 331 331 330 330 330 330 328 328 328 328 329 329 328 328 327
338 337 337 337 337 335 334 334 334 334 333 332 331 331 332 330 329 328 329 330 330 328 326 327 327 326 327 328 330 330 329 332 331 328 328 329 331 332 332 332 333 332 332 332 331 331 331 331 332 331 329 328 328 328 327 327 327 328 328 328 328 327
337 337 337 337 336 333 334 335 334 335 334 332 332 332 333 331 329 328 327 327 328 327 326 327 326 327 327 327 330 329 328 332 330 328 329 329 330 332 332 332 331 331 332 332 332 331 331 331 331 330 329 327 327 327 327 327 327 327 327 328 328 326
337 338 337 336 335 332 334 335 333 334 334 332 333 333 333 332 330 328 328 327 326 326 327 328 328 327 327 328 330 328 329 332 330 329 329 327 329 332 332 332 331 330 330 331 331 331 331 331 331 330 329 328 327 328 328 328 327 327 327 328 327 326
337 337 337 336 335 334 335 335 334 334 334 332 333 332 332 332 331 330 330 329 328 328 329 329 329 328 328 329 330 330 331 332 328 328 329 327 329 331 332 332 330 329 329 330 331 331 331 331 330 329 329 328 328 329 328 328 328 327 327 327 327 327
337 336 336 335 335 335 335 334 334 335 334 333 332 332 332 332 332 332 332 332 330 329 329 330 330 329 328 329 331 332 332 331 328 328 328 328 329 330 331 331 329 329 329 330 331 331 331 330 330 329 328 328 328 328 328 328 328 327 327 327 327 327
336 336 336 335 334 335 334 332 333 333 334 333 332 333 333 332 332 331 332 333 331 329 329 330 330 329 327 326 329 331 331 330 329 328 329 328 329 330 330 329 328 328 329 330 331 331 331 330 329 329 329 329 328 328 328 328 327 327 327 326 326 326
336 336 336 334 334 335 333 332 333 332 333 334 333 333 333 333 332 331 332 332 331 329 329 330 330 331 328 326 329 330 329 330 329 328 329 329 328 329 329 329 328 328 329 330 330 330 331 331 330 329 328 328 329 328 328 328 327 327 327 326 326 326
335 336 335 334 334 334 332 332 333 332 333 334 332 332 332 332 332 331 331 332 330 329 330 330 330 331 330 329 330 329 329 329 329 329 330 329 328 328 329 329 328 329 329 329 330 330 330 331 330 329 328 328 328 329 328 327 326 327 327 326 326 326
335 335 334 334 333 333 332 332 333 332 333 334 332 331 331 331 331 330 330 332 331 330 330 330 330 330 330 330 330 329 329 329 329 329 329 329 329 329 330 330 329 330 330 329 329 330 330 330 329 328 329 329 327 327 328 326 326 326 327 327 326 326
335 335 334 333 332 333 332 331 331 330 331 333 332 330 330 331 332 331 330 331 331 330 330 329 330 331 330 331 331 329 328 328 329 329 328 329 330 330 331 331 330 330 330 328 329 330 330 329 328 327 329 329 328 327 327 327 327 326 326 327 327 326
334 334 334 333 332 333 332 329 328 327 329 333 332 330 331 331 331 331 332 331 330 331 330 329 331 332 331 331 330 328 327 328 329 329 328 329 330 330 331 332 331 330 330 329 329 330 330 329 328 327 328 329 328 327 328 328 328 326 326 326 327 326
332 333 333 333 333 333 330 326 325 327 330 332 332 331 331 331 332 332 332 331 331 331 330 330 332 332 332 331 330 329 329 330 330 330 329 330 331 331 331 332 330 329 330 330 330 330 330 329 329 328 327 328 327 327 328 328 328 328 326 326 326 326
330 330 331 333 333 332 329 326 325 326 329 331 332 330 330 331 332 332 332 331 331 331 331 331 332 332 332 330 329 329 330 330 330 330 330 330 330 330 331 331 331 329 330 330 329 329 329 329 329 328 327 328 328 327 327 327 327 327 327 327 326 326
330 329 331 332 332 329 327 327 327 327 329 331 330 329 329 331 331 331 331 331 331 332 332 332 332 332 332 330 328 328 328 328 329 330 330 330 330 329 329 331 331 330 329 329 329 329 329 329 329 329 328 329 329 327 327 327 326 326 326 327 327 326
331 329 330 331 330 328 326 327 328 329 331 331 330 328 328 329 330 330 331 331 332 332 333 333 333 332 331 329 327 326 326 326 328 329 329 329 329 328 328 329 330 329 328 328 328 328 329 329 328 329 328 329 329 327 327 327 326 326 326 327 327 327
331 330 331 331 330 329 327 326 327 330 330 331 330 328 327 329 330 330 331 331 332 332 332 332 331 330 328 327 325 324 323 324 326 327 327 328 329 328 328 328 328 328 327 327 327 328 328 328 328 328 328 329 328 327 328 327 326 326 326 326 327 327
330 331 330 330 330 329 327 325 327 331 331 329 328 328 328 329 330 330 331 332 332 333 332 331 329 327 326 325 325 324 323 322 324 325 324 325 327 328 329 328 328 327 327 326 326 327 327 327 327 327 327 328 328 327 327 326 325 326 326 325 326 327
329 331 330 330 331 329 326 324 326 331 332 329 327 328 328 328 330 330 331 333 333 332 331 330 328 326 324 324 324 323 323 323 324 324 322 322 326 329 329 328 328 328 327 326 327 327 327 327 327 327 327 327 328 327 327 326 325 325 326 326 326 326
329 333 331 331 331 328 325 324 326 330 333 330 326 326 326 326 329 330 331 332 332 331 331 329 326 325 324 323 322 322 324 325 324 323 321 321 324 327 328 328 328 328 327 327 326 326 327 327 327 327 326 327 327 327 326 325 325 326 326 326 327 326

ECMWFFLT2_850_thetae_060.txt.gz
Theta_e
331 331 331 331 331 330 327 322 318 319 323 326 329 331 330 329 329 333 337 337 336 334 331 329 325 324 328 329 330 330 330 328 323 322 321 321 322 323 321 316 319 326 329 330 332 332 331 332 332 331 331 331 330 329 329 328 325 320 312 309 309 308
331 331 331 331 332 331 329 323 319 318 320 323 327 328 326 328 332 335 337 336 336 335 331 329 327 325 324 325 327 329 330 329 325 324 323 323 324 325 325 320 317 320 325 329 331 331 332 332 332 330 329 331 331 330 329 327 324 321 315 312 310 309
331 331 331 331 332 331 329 324 320 320 319 320 324 326 325 330 335 336 337 335 335 334 332 330 329 327 324 322 322 325 329 329 327 324 324 325 326 326 326 324 320 317 322 329 330 331 332 332 331 329 329 331 331 330 329 328 326 323 318 314 312 311
331 331 331 331 331 332 329 324 321 320 319 318 321 324 326 332 336 337 337 334 333 333 333 331 329 329 326 323 321 323 327 328 327 324 324 326 326 326 326 326 323 320 323 327 328 329 331 331 330 329 329 329 329 329 330 330 329 327 322 317 316 314
331 331 331 331 331 332 330 326 322 320 319 318 320 324 328 333 336 338 336 333 332 332 332 331 329 329 328 326 323 324 327 327 326 324 324 326 326 326 326 326 325 323 324 326 326 328 330 330 330 330 328 326 328 330 331 331 330 330 326 321 319 318
330 331 331 331 331 332 331 327 322 320 319 318 320 325 330 332 335 337 335 332 331 331 332 331 329 330 329 328 326 326 328 327 326 324 323 326 327 326 326 326 327 326 326 326 327 329 330 331 331 330 327 326 328 331 332 331 330 330 327 322 320 320
330 331 331 331 331 331 332 328 322 319 319 319 323 328 330 331 333 336 335 331 330 331 332 331 330 331 329 328 328 329 329 328 326 324 323 326 327 326 327 326 327 327 327 328 329 330 331 331 331 330 328 327 329 331 332 331 330 330 327 322 321 321
330 330 331 331 331 331 331 328 323 320 319 321 326 329 329 330 333 333 332 330 330 331 331 330 330 332 330 328 329 327 326 323 323 323 322 325 327 326 327 327 327 327 327 329 330 331 331 331 331 331 330 329 330 331 330 330 330 330 328 325 323 321
331 331 331 331 331 331 331 328 324 322 321 323 328 330 329 331 332 332 331 330 331 331 331 329 329 330 329 330 329 323 321 319 319 321 321 324 327 326 326 326 327 326 326 326 327 328 331 332 331 331 332 330 331 331 329 330 331 330 329 326 323 321
332 332 332 332 332 331 331 329 326 324 322 324 327 329 330 332 332 332 331 331 331 331 330 328 328 330 330 330 327 321 320 321 320 322 323 324 325 325 325 325 325 325 326 326 325 327 330 331 330 330 331 330 330 330 330 330 330 330 329 326 324 323
333 333 332 333 332 331 331 330 328 326 324 324 327 329 331 332 333 332 331 331 332 331 329 329 329 329 330 329 326 323 323 324 324 325 327 327 325 325 325 326 325 324 327 328 328 329 330 331 330 329 329 329 329 328 329 329 329 330 329 326 325 326
334 334 333 333 333 332 332 332 330 328 325 326 329 331 332 333 333 332 332 331 331 329 329 330 329 329 330 328 328 327 326 326 326 327 328 328 328 328 328 329 328 327 328 330 330 330 331 331 330 328 329 328 328 328 328 328 328 329 329 326 325 325
335 334 334 334 334 333 333 333 332 330 327 328 331 332 333 333 333 333 332 332 330 328 328 330 329 330 330 328 329 330 329 327 327 327 328 328 328 330 330 330 330 329 330 330 331 331 331 331 330 329 329 329 329 328 327 327 328 330 329 326 325 325
336 335 335 335 335 334 334 334 333 331 330 329 331 332 332 333 333 332 332 332 330 328 329 330 330 330 330 329 329 330 331 330 327 327 328 329 329 330 331 331 331 331 330 331 331 331 330 330 329 329 330 330 330 329 327 326 328 330 330 326 326 326
337 337 336 336 336 335 334 334 333 332 331 331 331 332 332 332 332 332 332 332 331 330 329 330 330 330 330 330 330 330 332 330 328 328 329 331 330 330 332 331 331 331 330 331 331 331 330 330 330 329 329 329 330 329 327 327 328 329 329 328 327 326
338 338 337 337 336 335 335 335 334 333 333 332 332 333 332 332 332 332 332 332 331 330 330 330 330 330 330 331 332 332 331 330 328 328 329 331 331 331 332 332 332 331 331 332 332 331 331 330 330 330 330 329 330 330 329 329 329 329 329 329 327 327
338 338 338 337 337 335 335 335 335 334 333 333 333 333 332 333 333 333 332 332 331 330 330 330 330 330 331 331 332 331 330 329 329 329 328 329 330 331 332 332 332 332 332 332 332 331 331 330 330 330 330 330 330 330 329 329 329 329 329 329 328 327
339 339 339 337 336 336 336 336 335 335 334 333 333 333 333 333 334 333 332 332 332 331 331 330 330 329 330 331 331 331 330 329 330 331 329 328 329 331 332 332 332 332 331 332 331 331 331 330 330 329 330 330 330 329 328 329 328 329 329 329 328 327
339 339 339 336 336 336 336 335 335 335 335 334 333 333 333 333 333 333 333 333 332 332 331 330 329 328 329 331 330 330 331 330 330 330 329 329 329 331 332 332 332 331 331 331 331 331 331 330 329 329 329 329 329 327 327 328 328 329 329 328 328 328
340 339 338 336 336 336 336 335 336 336 335 334 333 333 333 332 333 333 332 332 332 332 331 330 329 327 327 329 329 330 331 331 330 328 327 328 330 331 332 331 332 331 331 331 331 331 331 330 329 329 329 328 327 326 326 326 327 328 328 327 327 328
339 337 337 337 335 335 335 335 336 336 334 333 333 333 333 331 332 332 332 332 332 332 331 331 329 327 327 328 329 330 331 331 329 326 327 328 329 332 332 332 332 332 331 331 331 331 331 331 330 328 328 327 326 326 326 326 326 327 327 327 327 328
337 336 337 336 333 333 335 335 335 335 334 333 333 334 333 332 331 331 331 331 331 331 330 330 329 328 328 327 329 330 331 331 328 326 328 329 329 331 332 332 331 331 331 331 330 330 330 330 329 328 327 327 326 326 327 327 326 326 326 327 327 327
336 336 338 337 334 334 335 335 334 334 333 333 332 332 333 332 331 331 331 332 332 331 330 329 328 328 328 326 329 331 330 330 328 326 329 329 328 329 331 332 331 330 331 330 330 330 330 330 329 328 328 327 326 326 327 328 327 326 327 327 327 326
336 336 337 337 334 334 335 334 334 334 334 333 332 331 331 332 332 331 331 331 331 330 328 328 329 329 327 327 329 330 330 329 328 327 328 328 326 328 330 331 331 330 330 329 329 330 330 330 329 328 328 327 327 326 327 328 327 326 327 327 327 326
336 336 336 336 335 333 334 334 333 334 334 333 332 332 332 333 332 331 330 330 329 328 328 328 330 329 328 328 329 330 330 329 328 328 328 328 327 327 329 330 330 330 329 328 328 329 330 329 329 329 328 328 327 327 326 327 327 326 327 327 326 326
336 336 336 336 335 333 333 333 333 333 332 331 331 331 332 333 332 331 330 331 329 328 329 329 330 330 329 329 329 329 330 328 328 328 328 328 328 328 330 331 329 328 328 328 328 329 329 329 330 329 328 328 328 328 327 326 326 326 327 326 326 326
334 336 337 336 336 334 333 333 332 330 330 330 330 330 331 332 332 332 331 332 332 330 329 329 329 330 330 329 327 327 328 328 328 329 328 328 328 328 330 330 329 328 328 328 329 329 329 329 329 329 328 328 328 327 328 327 325 326 326 326 326 326
332 335 337 336 335 333 332 332 330 330 330 330 330 330 331 332 332 332 332 332 333 331 329 329 329 330 330 329 327 328 328 328 328 329 328 328 329 328 328 329 329 328 328 328 328 329 329 329 328 328 328 328 328 327 328 327 325 325 325 326 326 326
331 334 336 335 334 332 330 330 330 330 331 330 330 330 330 331 331 331 332 332 333 331 329 329 330 330 330 329 328 329 329 328 328 329 328 329 329 328 328 329 329 328 329 329 328 329 329 329 328 327 327 328 328 327 327 327 326 325 324 325 326 325
329 333 335 334 333 331 329 329 329 329 331 329 328 329 330 330 331 331 332 333 332 331 330 331 331 330 331 330 329 329 328 328 329 329 328 328 328 329 328 330 330 328 329 329 328 329 330 329 328 327 326 327 327 327 327 327 326 326 325 324 325 325
329 332 334 334 332 331 329 328 329 329 330 329 328 329 330 330 330 331 331 332 332 331 331 332 331 331 331 330 329 329 328 328 329 329 328 328 329 329 329 330 330 328 329 329 328 328 330 330 329 327 327 327 327 327 326 326 326 326 326 325 324 324
331 332 334 333 332 331 331 330 330 329 329 329 329 330 330 330 330 330 331 331 332 331 331 332 331 331 331 330 329 329 328 328 329 329 328 328 329 330 329 330 331 329 329 329 328 329 329 329 329 328 327 327 327 327 326 326 326 326 326 326 325 325
331 331 333 333 332 331 332 331 330 329 328 328 330 331 330 329 329 330 330 331 332 331 330 331 332 330 329 330 330 329 328 329 330 329 329 330 330 330 330 331 331 330 329 328 329 329 328 328 328 328 328 327 327 328 327 327 327 326 326 326 326 325
332 332 333 332 331 331 332 332 331 330 329 329 330 331 330 329 329 330 330 331 332 331 330 331 331 330 330 331 330 329 328 329 329 329 329 330 330 329 329 330 330 329 329 328 328 328 328 327 328 328 328 327 327 328 327 327 327 327 326 326 326 326
333 333 333 333 331 331 331 332 332 331 331 330 331 331 331 330 330 330 331 331 332 332 331 331 331 331 332 331 329 327 327 327 327 328 328 328 328 328 328 328 329 329 328 328 328 328 327 328 328 328 328 328 328 328 327 327 327 326 325 325 326 326
334 334 334 334 333 333 333 333 333 332 331 331 332 330 329 331 331 331 331 331 331 331 332 332 332 332 331 329 326 325 325 325 326 327 326 326 327 328 328 327 327 328 327 327 328 327 327 328 328 328 328 328 328 328 327 327 327 326 325 326 326 326
332 331 332 333 335 335 334 334 333 332 331 332 333 330 329 330 331 331 331 331 331 331 331 332 332 331 329 327 326 324 323 324 326 326 325 325 326 327 328 327 327 327 327 326 327 326 326 327 327 327 327 327 328 328 327 327 327 326 325 326 326 327

ECMWFFLT2_850_thetae_063.txt.gz
Theta_e
328 325 324 324 323 324 326 329 334 336 335 334 335 336 335 333 330 330 331 332 332 333 336 332 323 322 325 327 327 324 322 321 318 317 316 313 311 311 320 330 332 331 331 330 329 329 330 330 330 330 329 328 328 328 326 323 317 311 310 310 309 309
329 326 324 324 324 324 328 330 333 335 334 333 335 336 334 331 330 332 333 334 332 332 334 329 322 323 327 329 329 327 323 321 320 319 318 315 312 314 322 330 331 331 330 330 330 330 330 330 330 329 328 327 327 327 327 326 322 316 313 311 311 310
329 328 326 325 324 324 326 328 331 333 333 333 336 335 333 331 331 334 335 335 333 330 330 325 322 325 328 330 330 329 325 322 321 321 320 318 314 316 325 330 330 331 330 330 330 330 330 330 328 328 328 327 326 326 326 328 327 323 318 315 314 312
330 330 328 327 326 325 324 323 328 332 333 334 335 335 332 330 332 335 336 336 334 331 328 325 325 326 327 330 330 329 327 323 321 322 322 320 317 317 323 329 329 330 330 329 330 330 330 329 327 326 326 326 325 325 327 328 328 326 321 319 317 315
330 330 330 329 327 326 324 323 326 330 333 334 334 334 331 330 333 336 337 336 335 332 329 328 326 325 324 326 327 328 326 324 322 322 323 323 321 319 320 326 328 327 329 330 331 330 328 327 326 325 325 325 325 325 328 329 329 327 324 321 320 318
329 330 330 330 329 327 325 323 324 327 332 333 333 333 330 330 335 337 337 335 334 333 330 329 328 326 325 323 323 325 326 325 322 322 324 324 324 322 318 321 323 326 330 330 330 328 327 326 325 326 326 325 326 328 329 330 330 328 326 323 322 320
328 331 331 330 330 328 327 324 324 327 330 331 332 332 329 330 335 337 336 334 334 333 331 330 329 327 328 325 323 325 326 326 323 322 324 325 325 325 321 319 323 327 329 329 329 327 326 326 326 327 327 327 328 330 330 330 330 329 327 326 324 322
329 330 331 331 331 330 329 326 325 328 329 328 329 329 327 331 336 337 336 334 332 332 331 331 329 329 329 327 326 326 327 326 324 322 323 325 325 326 324 322 324 326 326 327 329 328 327 327 327 328 328 329 330 331 331 330 330 330 328 327 324 322
330 330 331 331 331 331 330 328 325 325 326 325 326 326 326 331 334 336 336 333 331 331 331 330 329 330 329 328 328 328 329 327 326 323 323 325 325 326 326 325 324 324 324 327 328 329 328 328 328 329 329 330 331 331 331 330 330 330 328 326 324 323
330 330 331 331 331 331 330 329 327 324 322 322 322 323 326 331 333 335 336 334 331 330 331 330 330 331 329 328 328 328 328 326 325 324 323 325 326 326 326 326 325 325 326 328 329 330 330 329 329 330 330 330 331 331 331 331 330 329 328 326 325 324
330 329 330 331 330 331 331 330 329 325 322 320 319 321 325 329 331 333 335 333 331 330 331 330 330 331 329 329 328 325 323 321 321 322 323 325 326 326 327 326 326 326 327 328 328 328 328 329 330 330 330 330 330 329 330 330 329 329 328 327 325 325
329 330 330 330 330 330 331 330 330 328 325 321 320 321 325 328 330 331 333 332 330 331 331 330 330 331 330 330 327 321 319 319 320 321 322 325 326 326 326 327 326 326 326 326 325 325 326 329 330 329 329 329 329 329 329 329 329 329 329 327 326 324
330 331 330 331 331 331 331 331 331 330 327 324 322 322 326 329 330 331 332 331 331 331 331 330 329 330 330 329 325 321 321 321 322 322 322 325 326 326 326 326 325 324 325 326 324 324 327 329 330 329 329 329 329 329 329 329 329 329 329 328 325 324
333 333 331 331 331 331 331 331 331 331 329 327 324 322 325 329 330 331 332 332 332 332 331 330 329 330 331 329 326 324 323 324 326 324 323 324 325 326 326 325 323 324 326 327 326 326 329 330 330 330 329 330 330 330 329 328 328 329 330 328 325 325
334 334 333 332 332 332 333 332 333 332 331 330 326 323 326 330 331 332 332 332 332 332 331 330 329 329 330 329 329 327 325 326 328 328 326 326 327 328 327 326 325 326 328 329 328 328 329 330 330 330 329 330 330 329 328 327 328 329 330 329 327 326
336 335 334 334 333 333 334 333 334 333 333 332 328 326 328 331 332 333 333 332 332 332 330 329 328 329 330 330 330 329 327 327 328 329 328 328 328 328 328 327 327 328 329 329 329 330 330 330 330 330 329 330 330 329 328 327 328 329 330 329 328 327
336 336 336 335 335 334 335 334 334 334 333 332 330 328 329 331 333 333 333 332 332 332 330 329 329 329 330 330 330 330 330 329 328 329 330 329 328 329 329 328 328 330 330 330 330 330 331 330 330 330 330 330 329 329 329 329 329 329 329 330 328 328
336 337 336 335 336 336 335 335 335 334 334 333 331 330 331 332 333 333 333 332 332 332 331 329 329 329 330 331 330 331 331 330 329 330 330 331 330 330 330 330 330 331 332 332 332 331 331 330 330 330 330 330 329 330 330 329 329 329 329 329 328 328
336 336 336 336 336 336 336 335 335 334 334 333 332 333 333 333 334 333 332 332 332 332 331 330 329 329 330 331 331 331 332 330 329 330 330 332 332 330 331 332 331 331 332 332 332 331 331 331 330 330 330 329 329 329 329 329 329 329 329 329 328 328
336 335 335 335 337 337 336 336 335 334 333 333 333 334 334 333 333 333 333 333 333 332 332 330 329 330 330 330 331 332 332 330 330 331 330 330 331 330 330 332 332 331 331 331 331 331 331 331 330 330 330 329 329 329 329 329 329 328 328 329 328 328
336 335 334 335 336 337 337 337 335 334 334 334 335 335 334 334 333 333 333 334 333 333 332 331 330 330 329 330 331 331 331 330 330 331 330 329 328 329 330 331 331 331 331 331 330 331 331 330 330 330 329 329 328 328 328 328 329 328 328 328 328 328
335 333 334 335 336 337 337 337 336 335 335 335 335 335 335 334 333 332 333 334 333 333 332 331 330 330 329 329 330 330 331 331 331 331 331 330 329 330 330 331 331 331 331 331 331 330 330 330 330 329 329 327 327 326 326 327 328 328 328 327 327 327
332 332 334 335 336 337 338 337 336 335 335 335 335 335 335 334 333 333 333 333 332 331 332 332 331 329 328 328 329 330 330 331 332 332 330 330 330 330 330 331 331 331 331 331 331 330 330 330 330 329 327 326 326 326 326 326 326 327 326 326 326 327
329 332 334 334 336 337 337 337 336 335 335 335 335 335 334 333 333 333 333 333 331 330 331 332 331 329 328 328 328 329 330 331 332 331 329 328 329 329 329 330 331 332 331 330 330 330 330 330 330 329 327 326 325 325 326 327 326 326 326 326 326 326
329 332 333 333 335 336 336 336 335 335 335 335 334 334 333 332 332 332 332 332 331 330 331 331 331 330 329 328 327 328 330 331 332 331 328 329 329 328 328 329 330 331 330 329 329 329 328 329 330 329 328 327 326 325 326 327 326 326 326 326 326 326
329 330 331 332 334 335 335 335 334 334 335 335 334 333 332 331 330 330 331 331 330 330 330 331 331 330 328 328 328 328 330 331 331 330 328 329 330 328 327 328 329 331 330 329 328 328 327 328 330 329 328 327 327 327 326 326 326 325 325 326 326 326
333 332 331 332 334 335 335 335 334 332 333 334 333 332 330 330 330 331 332 331 330 330 330 331 331 329 328 329 328 328 330 331 331 330 329 329 329 327 326 327 329 330 329 328 328 328 327 328 329 329 328 328 327 327 327 327 326 325 325 326 326 326
336 335 334 334 334 335 335 336 334 332 333 333 332 329 328 329 330 332 332 331 330 329 330 331 330 329 329 330 329 329 330 331 331 330 329 328 329 328 328 328 330 329 328 328 327 327 328 328 328 328 328 328 328 327 327 327 327 325 324 325 325 325
335 334 334 335 335 335 335 335 334 333 332 332 331 328 326 328 330 331 332 331 330 329 330 330 330 330 330 331 330 330 331 331 331 330 328 328 329 329 329 329 330 329 327 327 327 327 328 329 328 328 327 327 328 328 327 327 327 325 324 324 325 325
332 333 333 334 335 336 336 335 334 332 331 332 331 329 327 329 330 331 332 332 331 331 331 331 330 331 331 331 331 331 331 331 331 330 328 328 329 329 330 330 330 329 327 327 327 327 328 329 329 329 328 327 327 328 327 327 327 326 325 324 324 324
329 331 331 332 334 335 335 336 334 331 331 331 331 329 329 330 330 331 332 332 332 332 332 331 331 330 329 330 331 331 330 330 330 329 328 329 329 330 330 329 329 329 328 327 327 327 328 329 329 329 329 327 327 327 327 325 325 325 325 324 324 324
328 328 329 331 333 334 335 336 334 331 331 331 330 330 330 330 331 331 332 332 332 332 332 332 331 330 328 328 330 331 330 330 330 328 328 328 329 329 329 329 328 328 329 328 328 329 328 328 329 329 329 328 327 327 327 326 325 325 326 325 324 324
331 331 332 333 333 332 332 333 333 332 330 330 330 330 330 330 331 331 331 332 332 332 332 331 330 329 329 328 328 330 331 330 329 328 328 329 328 328 328 328 328 329 329 328 328 329 328 328 329 329 329 328 327 327 327 327 326 326 326 326 325 324
334 333 333 332 328 328 329 330 332 333 331 330 330 329 330 329 330 331 331 331 331 331 332 331 328 327 328 328 327 328 330 330 328 327 328 328 327 327 328 328 329 329 330 329 328 329 328 328 329 329 329 328 327 327 327 327 327 326 326 326 325 325
335 333 332 330 324 324 328 328 330 333 332 331 330 329 329 330 330 331 330 330 331 331 332 331 329 327 327 328 327 327 329 329 327 327 328 328 327 327 328 329 329 330 330 329 329 329 329 329 329 329 328 328 328 327 327 328 327 326 326 326 325 325
334 333 332 330 326 324 325 325 327 332 332 331 330 329 329 330 331 331 330 329 330 330 331 331 330 328 328 328 328 328 328 328 327 327 328 328 327 327 329 329 330 330 330 330 329 329 329 328 328 328 328 328 328 327 327 328 327 326 326 326 325 326
332 332 330 329 327 326 325 326 327 331 332 331 331 330 328 329 330 331 330 329 330 331 331 331 331 330 329 329 329 328 328 328 328 329 329 329 328 328 329 329 329 330 330 330 329 329 328 327 327 327 328 328 328 328 328 328 327 326 326 326 325 326

ECMWFFLT2_850_thetae_069.txt.gz
Theta_e
342 342 341 341 340 340 340 338 336 333 330 331 333 333 333 331 330 331 332 334 335 335 335 333 328 323 322 322 318 315 311 310 314 318 318 318 319 321 322 322 323 326 327 328 328 326 324 323 322 322 321 319 317 316 315 314 314 313 313 312 311 310
341 341 341 341 340 340 340 340 339 337 334 332 334 334 334 333 331 333 335 335 335 335 335 335 333 326 322 324 321 317 313 310 311 316 319 318 319 321 322 324 325 326 326 327 327 325 323 323 323 323 324 324 322 320 319 319 318 317 316 314 312 311
341 341 341 341 340 340 340 340 339 339 336 333 335 335 336 335 333 334 335 335 334 335 334 334 334 328 323 324 322 319 316 312 309 313 318 319 319 320 321 325 327 328 327 327 328 325 323 322 323 323 325 326 325 324 323 323 323 322 320 318 316 314
340 341 341 340 340 340 339 339 339 339 337 335 335 336 336 335 334 333 333 334 335 335 335 334 333 329 326 325 323 321 318 314 310 312 317 320 321 320 321 324 328 329 328 327 328 327 324 322 322 323 325 326 326 325 325 325 325 324 324 322 321 318
338 339 340 339 339 339 339 338 339 339 338 337 336 336 335 335 334 333 331 333 335 334 334 334 333 332 330 327 324 322 319 316 312 311 316 321 322 322 321 324 328 330 330 328 328 328 325 323 323 323 325 326 326 325 325 325 325 325 324 323 323 321
335 334 335 336 336 337 337 338 337 337 337 337 336 335 335 334 334 333 332 333 334 333 334 333 333 334 333 330 326 322 320 319 314 311 315 320 323 324 323 325 327 329 331 330 329 329 327 325 324 324 326 327 327 327 326 326 326 325 324 323 322 322
330 330 331 331 332 334 336 337 336 336 336 336 335 334 334 335 334 332 332 333 333 334 333 331 331 333 333 332 329 324 322 321 317 313 315 320 324 326 326 326 328 329 331 331 330 329 327 325 325 326 327 327 327 327 327 326 326 325 324 323 322 321
328 329 329 329 330 332 334 335 335 335 334 334 334 333 333 334 334 332 332 332 334 334 332 330 329 331 331 331 331 327 324 323 321 317 316 320 325 328 329 328 328 330 330 331 330 329 328 326 326 327 328 328 327 327 326 326 326 325 325 324 324 323
328 330 329 327 327 331 334 334 334 333 332 332 333 332 332 333 333 332 331 332 334 335 332 330 329 329 329 329 330 329 326 324 324 322 318 320 326 329 331 330 330 330 330 330 330 330 328 327 326 327 328 328 327 326 326 326 326 326 326 326 325 324
329 330 329 326 325 328 332 333 333 331 328 329 330 330 331 332 332 331 331 332 334 335 334 331 330 329 328 328 328 328 328 326 325 325 322 320 325 330 330 330 330 330 331 330 330 330 328 327 327 327 328 328 327 327 326 326 327 327 326 326 325 324
329 330 330 328 327 328 330 333 333 330 327 326 327 328 328 330 331 330 329 332 335 335 334 332 331 330 329 329 327 324 326 327 325 326 326 322 324 328 330 330 330 330 330 330 330 329 328 328 328 329 328 328 327 327 327 327 327 327 326 326 325 324
330 330 330 330 329 329 329 331 332 329 327 326 325 325 326 327 328 328 328 332 335 335 334 333 331 331 330 330 328 325 325 326 326 326 327 325 323 326 329 330 330 330 330 330 330 329 328 328 329 329 328 327 327 328 328 328 328 327 326 327 326 324
331 330 330 331 330 330 329 330 330 329 328 327 326 325 324 323 324 326 327 331 335 335 334 332 331 332 331 330 329 328 326 326 327 326 326 327 325 324 327 329 330 330 330 330 329 328 328 329 329 329 327 327 328 329 329 328 328 328 327 327 326 324
330 330 330 330 330 330 330 330 330 330 330 329 328 326 325 323 322 323 326 330 335 336 334 332 331 332 331 331 330 329 328 327 327 327 326 327 327 325 325 327 328 329 329 329 328 328 329 329 328 328 328 328 329 329 329 329 328 328 327 328 327 325
329 330 330 330 330 330 330 330 330 330 330 330 330 328 326 323 321 322 325 330 334 336 335 331 331 332 330 331 331 330 329 328 327 327 326 326 328 328 326 326 327 328 328 328 328 329 330 329 327 328 328 329 329 329 329 329 328 328 327 328 327 326
330 329 330 330 330 330 330 330 330 330 331 331 330 329 328 325 322 321 323 328 333 336 335 332 331 331 330 329 330 330 329 327 323 323 325 326 327 328 328 327 327 328 328 328 328 329 329 327 327 329 329 329 329 329 329 329 328 328 327 328 328 327
332 331 331 330 330 329 330 330 330 330 330 330 330 330 329 326 323 321 322 327 331 334 335 333 330 331 330 328 329 330 329 325 321 319 321 323 326 328 329 328 328 328 328 328 328 328 327 327 328 330 329 329 329 329 329 329 329 328 327 329 329 328
333 332 333 333 332 331 330 329 329 330 330 330 330 330 329 327 325 323 323 326 330 333 335 333 331 331 330 329 328 330 329 326 323 321 320 321 324 327 329 329 329 329 329 328 328 327 326 327 329 330 330 329 329 329 329 329 329 328 328 329 329 329
333 332 333 333 332 332 331 330 330 331 332 331 331 330 330 329 327 325 324 326 329 331 334 333 331 331 331 330 328 329 329 327 326 325 323 323 324 326 329 329 329 328 328 327 327 327 327 328 329 330 330 330 329 329 329 329 329 328 328 329 328 328
334 333 333 332 332 332 332 331 331 331 331 331 331 331 331 331 329 327 326 327 328 331 333 333 332 332 331 330 328 328 329 328 327 326 325 324 324 326 328 329 328 328 328 327 327 329 329 329 330 330 330 330 330 329 329 329 329 328 328 328 328 328
330 332 333 332 332 332 333 333 332 332 332 331 331 332 332 332 330 328 327 327 327 331 333 333 332 332 331 331 329 328 329 329 328 327 326 326 326 327 328 328 328 328 329 328 328 329 330 330 330 330 330 330 330 329 329 329 328 327 327 328 328 328
327 331 332 333 332 333 335 335 334 334 334 333 333 333 333 333 332 330 329 328 327 330 332 332 333 332 331 331 329 329 329 329 329 328 328 329 328 328 328 329 329 328 328 329 329 330 331 331 330 330 330 330 330 329 328 328 328 327 327 327 327 328
326 329 331 331 331 333 335 336 336 335 335 335 335 334 334 334 334 332 330 329 329 330 331 331 333 333 332 331 329 329 329 329 329 329 329 329 328 328 329 329 329 329 329 329 330 330 331 330 330 330 330 330 329 328 328 328 327 326 327 326 327 328
325 327 329 329 329 331 335 336 335 336 335 335 335 335 335 334 334 334 332 330 331 330 330 331 332 333 333 331 329 329 329 329 329 329 329 330 329 329 330 329 329 329 330 330 330 330 330 330 330 330 330 329 328 328 327 327 327 326 326 326 326 328
325 326 326 327 328 330 334 335 334 335 334 334 334 334 334 333 333 333 332 330 330 331 331 331 333 334 333 332 330 330 329 329 329 330 330 330 330 329 329 330 330 330 330 331 331 330 330 330 330 330 329 328 328 327 327 327 327 326 326 326 326 327
327 327 326 327 328 330 333 335 335 335 334 334 334 334 333 334 333 333 332 331 331 331 332 333 334 333 332 332 331 330 329 329 329 330 330 331 331 330 329 329 330 330 330 331 331 330 330 330 330 330 329 329 328 327 327 327 327 326 326 326 326 326
328 328 328 328 329 331 333 334 335 335 334 334 333 333 333 334 334 333 333 332 331 331 332 333 333 333 332 332 331 330 329 329 330 330 330 331 331 330 329 329 330 330 331 331 331 331 331 330 330 330 330 329 327 327 327 326 326 327 327 326 326 326
328 329 331 331 332 333 333 334 334 334 334 334 334 334 333 334 333 332 331 331 332 332 331 331 332 334 333 332 332 331 330 330 330 331 331 330 330 330 330 330 329 329 330 331 331 331 331 330 330 329 329 329 328 327 327 327 327 327 327 327 327 326
326 328 330 331 332 334 333 332 332 332 331 332 333 333 333 333 331 329 330 331 331 331 331 331 332 334 333 332 332 331 330 330 330 331 331 330 330 330 331 330 328 327 329 330 331 331 331 330 329 329 329 328 328 328 327 327 327 327 327 327 327 327
327 327 328 329 330 331 330 330 330 330 330 330 331 332 332 331 330 329 331 332 331 331 331 331 332 332 332 331 332 332 331 330 330 331 330 329 328 329 331 330 328 328 328 330 331 331 330 330 329 329 329 328 329 328 327 327 327 327 326 326 327 327
330 329 329 329 329 330 330 331 331 331 331 331 331 332 332 331 330 329 331 331 331 331 331 331 331 331 331 331 332 332 332 331 329 330 330 328 326 328 330 330 329 328 329 329 330 330 330 330 329 329 329 329 329 329 327 327 327 327 326 325 326 327
331 331 331 330 330 330 331 332 332 332 333 332 332 332 331 330 329 330 331 331 330 331 330 330 331 332 332 332 332 333 332 331 329 329 329 327 326 328 329 329 329 329 329 329 330 330 329 329 328 329 329 329 329 328 328 327 327 327 326 326 326 326
330 330 330 329 329 330 331 332 332 333 333 332 332 331 330 329 329 330 331 331 331 330 330 329 329 330 332 331 332 332 332 331 330 329 329 327 326 328 329 328 328 328 328 328 329 329 329 328 327 328 328 329 329 329 328 327 327 327 326 326 326 326
328 329 329 329 329 329 330 331 331 331 331 331 331 330 329 329 329 330 331 332 331 328 327 327 327 328 330 330 329 330 330 330 330 330 328 326 326 327 328 328 328 327 327 328 328 328 329 328 327 327 329 329 329 329 329 328 327 327 327 326 326 326
327 327 328 328 328 328 329 329 330 330 330 330 330 329 329 329 328 329 331 331 330 327 324 324 325 326 328 330 330 329 329 329 329 330 329 327 327 328 328 328 328 327 327 328 329 329 328 328 328 328 328 329 329 329 329 328 327 327 327 326 326 327
325 326 326 326 327 327 328 328 329 329 330 330 329 329 329 328 328 328 330 330 329 328 325 325 325 325 327 329 330 330 329 328 327 329 330 330 329 329 328 328 328 327 327 327 329 329 328 328 328 328 328 329 329 329 329 329 328 327 327 327 327 327
326 326 326 326 326 326 326 327 328 329 329 329 329 328 327 328 328 328 329 329 328 327 327 326 325 327 327 327 328 329 330 330 328 327 329 330 330 329 329 328 328 327 327 327 328 329 329 328 328 329 329 328 329 329 329 329 328 327 327 327 327 327

ECMWFFLT2_850_thetae_072.txt.gz
Theta_e
341 340 340 339 337 337 333 330 333 332 332 333 333 332 332 332 329 327 329 332 334 335 333 330 326 321 319 318 314 314 318 321 322 322 325 326 324 322 324 327 326 326 325 321 320 320 320 319 317 316 315 314 315 316 318 320 320 321 319 313 310 310
342 341 341 342 339 339 337 335 335 334 333 334 334 334 334 336 333 330 333 335 336 336 335 334 331 326 323 321 316 313 315 320 323 323 325 327 327 324 323 327 326 327 327 322 320 319 321 322 321 320 319 318 319 319 317 319 323 325 323 316 311 311
342 341 341 343 342 341 339 338 338 337 336 335 336 336 336 337 336 335 335 335 335 335 336 335 334 331 325 323 319 314 312 317 321 323 325 327 328 326 324 327 328 327 327 325 323 322 321 323 324 323 323 323 323 323 321 322 324 327 324 316 312 313
341 341 341 342 343 342 341 340 339 339 338 337 336 337 337 337 336 336 336 335 335 335 337 336 336 334 327 322 321 317 313 312 318 323 325 327 327 327 327 328 329 328 328 330 330 329 326 324 324 325 325 326 326 324 325 327 327 327 325 319 316 315
341 341 342 343 343 343 341 340 340 339 339 338 337 337 337 337 336 336 335 335 334 335 338 337 335 334 329 325 324 322 317 311 314 320 325 329 328 327 328 329 330 328 330 334 333 331 329 325 324 326 326 326 326 326 328 330 330 330 327 322 321 319
341 341 342 343 343 342 341 341 341 340 339 338 338 337 337 336 335 335 334 334 334 334 336 336 334 334 334 331 327 326 324 317 315 317 324 330 330 327 328 329 329 329 331 333 332 328 327 326 327 328 328 327 327 329 331 331 331 331 328 322 322 322
339 339 340 342 343 342 341 342 341 339 338 338 337 337 337 336 335 335 334 333 333 333 334 335 333 333 335 334 330 328 328 325 320 319 324 330 331 329 330 329 329 331 332 332 331 327 325 327 328 330 329 329 330 331 331 331 330 330 328 324 322 322
339 338 338 339 340 340 340 340 339 338 338 337 336 336 336 335 334 334 334 333 333 333 334 335 334 332 334 335 333 329 328 328 326 323 325 330 332 331 330 330 331 332 333 333 331 329 328 326 327 330 330 330 331 331 330 330 330 329 329 327 324 322
338 337 337 337 337 338 338 337 337 337 337 336 335 336 336 335 334 333 333 333 333 333 335 336 334 332 333 335 335 331 329 329 329 327 326 329 332 330 328 329 331 332 333 333 332 331 329 327 327 330 330 330 330 330 330 330 329 329 329 329 327 324
337 336 336 336 336 337 336 335 336 336 336 335 335 335 334 333 332 333 333 333 333 333 335 337 334 333 334 334 334 332 330 328 329 329 326 328 331 330 328 328 331 332 333 333 332 331 329 329 329 330 330 330 330 330 330 329 329 329 329 329 328 324
337 336 336 338 337 336 335 335 336 335 335 334 334 334 331 330 330 332 333 333 333 333 335 336 334 333 334 334 333 332 331 328 328 329 327 327 329 329 327 327 330 332 332 333 333 331 330 330 331 330 331 330 330 330 330 330 330 330 329 329 328 326
339 338 337 339 338 336 335 335 336 336 335 335 334 332 330 329 328 329 332 333 333 332 334 335 334 333 333 333 333 332 332 330 329 329 328 327 326 325 324 325 329 331 332 332 332 331 330 330 331 331 330 328 329 330 330 330 330 330 329 329 329 328
339 339 338 340 339 338 337 337 336 336 335 335 334 332 331 330 328 328 329 331 332 332 334 336 334 333 333 333 333 333 332 332 331 330 330 329 324 322 322 324 326 328 330 331 331 330 330 329 329 330 329 328 329 330 331 331 330 330 330 329 329 329
338 337 337 337 337 337 339 338 338 337 336 335 334 334 333 330 328 327 328 331 331 331 333 336 335 333 333 334 333 333 332 332 332 331 331 331 327 324 323 324 326 327 329 330 331 330 330 330 329 330 328 328 329 329 331 330 330 330 329 329 329 328
336 335 335 334 333 334 336 336 338 338 336 335 334 336 335 332 330 328 328 330 330 330 333 335 336 334 333 334 333 333 332 331 332 332 332 331 330 328 325 325 326 328 329 330 331 330 330 330 330 330 327 327 328 329 331 330 330 329 329 329 328 328
336 335 333 333 332 333 334 333 335 336 335 334 335 336 336 334 332 330 327 328 329 330 332 334 336 334 333 333 332 332 333 331 331 332 332 331 330 330 328 326 326 328 330 331 331 330 330 329 329 329 326 327 329 329 331 331 330 330 329 329 329 329
334 335 334 333 332 333 334 334 334 335 334 334 335 336 337 335 333 332 329 327 328 329 331 334 335 335 334 333 332 332 332 331 332 332 332 331 330 330 331 329 327 326 328 330 330 329 329 328 329 328 326 328 330 330 331 331 331 330 329 329 330 330
332 332 333 334 333 332 332 333 334 335 335 334 335 336 336 335 334 333 332 329 328 328 329 331 334 336 335 333 332 333 332 331 332 332 329 329 329 330 331 331 329 327 327 329 329 329 329 328 329 328 327 330 331 331 331 331 331 331 330 330 330 330
331 329 329 331 333 333 331 330 331 333 334 334 334 335 335 334 334 334 333 332 330 328 329 330 332 335 334 333 332 332 332 332 332 330 325 324 327 329 331 331 329 328 328 328 329 330 330 329 329 329 329 330 331 330 331 330 330 330 330 330 330 329
329 327 327 330 332 333 332 331 330 332 333 332 333 334 334 334 334 334 333 333 331 330 330 330 331 333 333 332 332 331 331 332 332 330 326 324 324 325 328 329 329 329 329 328 328 329 330 329 328 328 329 331 331 331 330 330 330 330 330 329 329 329
327 326 327 329 331 331 332 332 332 333 332 332 333 334 334 335 334 335 334 334 333 332 331 330 330 331 331 331 332 331 331 331 331 330 328 327 325 324 326 328 329 329 329 329 329 329 328 327 327 329 331 331 331 331 330 330 330 330 329 329 329 330
328 326 329 331 332 331 331 331 332 333 334 335 335 335 336 335 335 336 335 334 333 332 331 330 329 329 331 332 332 331 331 331 330 330 329 328 327 326 326 328 329 329 329 329 329 328 327 326 327 330 332 332 332 331 331 330 330 330 329 329 329 330
332 331 333 334 334 334 333 331 332 334 337 337 337 336 336 336 336 336 336 335 334 332 332 330 329 328 331 333 333 332 331 330 330 329 330 329 327 327 327 327 328 328 328 328 328 328 327 326 328 331 331 331 332 331 331 330 330 330 329 329 328 329
334 334 334 334 334 334 334 333 334 336 337 338 337 336 336 336 336 336 336 336 335 334 333 332 330 328 330 332 333 332 331 330 329 329 331 331 329 327 326 327 327 328 328 328 328 328 328 328 329 331 331 331 331 331 331 331 330 330 329 328 328 327
333 332 333 333 333 334 334 334 334 335 336 336 336 336 336 335 335 335 335 335 334 334 333 332 331 330 330 331 332 332 332 331 330 329 331 332 330 328 328 328 327 327 327 328 329 328 328 329 330 329 330 331 331 330 331 331 331 330 329 329 328 328
332 332 333 333 334 334 334 334 334 334 335 335 335 335 335 334 334 334 334 334 334 333 332 332 332 331 331 331 331 332 332 332 330 329 330 331 330 329 329 328 327 327 327 328 331 330 329 330 331 329 329 330 330 330 331 331 331 330 330 329 328 328
331 332 333 332 332 333 333 334 333 333 333 334 334 335 334 334 334 334 333 333 333 331 331 332 332 332 331 331 331 331 332 333 331 330 329 330 330 329 329 329 329 329 329 329 329 330 331 331 330 330 330 331 330 329 330 331 330 331 330 329 328 327
331 331 332 331 330 331 332 332 332 331 331 332 332 333 333 333 333 333 332 332 331 330 330 331 332 332 331 331 331 332 333 333 332 330 329 329 331 330 330 329 329 329 330 330 328 327 331 332 330 330 331 331 330 330 330 330 330 331 330 330 329 328
331 331 332 331 330 330 330 331 332 332 332 333 332 332 332 332 332 332 332 331 330 330 331 331 332 332 332 332 332 333 333 333 333 331 329 329 331 331 330 329 329 329 330 330 328 327 329 330 330 331 332 332 331 331 330 330 330 330 330 330 330 330
331 331 331 331 331 331 331 331 332 333 333 333 333 332 332 332 332 332 332 331 330 330 331 331 331 332 332 332 332 333 333 333 333 331 329 330 330 330 329 328 329 330 330 330 330 329 329 329 330 331 331 332 331 331 331 331 331 331 330 330 330 330
330 330 330 331 331 331 331 331 331 332 333 333 334 333 332 332 332 332 331 331 330 331 331 330 331 331 332 331 331 331 332 332 333 330 328 330 330 330 328 326 327 329 330 330 329 329 329 330 331 331 331 332 331 331 331 331 331 331 330 330 330 330
328 329 329 329 329 330 330 329 330 331 332 332 332 332 331 331 331 331 331 331 330 331 331 331 330 330 330 330 330 330 330 331 331 329 328 330 330 330 330 328 327 327 329 330 329 329 330 331 331 330 331 332 331 331 331 330 330 330 330 330 330 330
327 327 327 327 328 328 328 328 329 330 330 330 330 330 330 330 331 331 331 331 330 331 332 331 329 328 327 328 328 329 330 329 329 329 329 330 330 329 330 329 327 327 329 330 329 328 330 330 330 330 331 332 332 331 331 330 330 330 330 330 330 330
326 326 326 326 326 327 327 328 329 329 329 329 330 330 330 330 330 330 330 331 331 331 331 329 327 326 326 326 326 327 329 329 328 329 330 331 330 328 329 328 327 328 329 330 329 328 330 331 330 330 330 331 332 331 331 330 330 331 330 330 330 330
325 325 326 326 325 326 326 326 327 328 328 329 330 330 329 329 329 329 330 331 330 331 331 329 327 325 325 326 326 327 328 328 328 328 329 331 330 328 328 327 328 328 329 330 329 329 331 331 330 330 329 330 331 331 330 330 330 330 330 330 330 329
324 325 326 326 326 326 326 325 326 327 328 329 330 330 329 329 329 329 330 330 330 331 331 330 329 327 325 325 326 327 328 328 328 328 329 329 329 328 328 328 329 329 329 329 328 328 330 331 330 330 330 331 332 331 331 331 331 331 330 330 329 329
323 324 325 326 326 326 326 326 326 327 328 329 329 329 329 329 329 329 329 330 330 330 330 329 328 328 327 326 327 327 329 329 329 329 329 328 328 328 327 327 328 330 330 330 328 328 330 330 330 330 330 330 331 331 331 331 330 330 331 330 330 330

ECMWFFLT2_850_thetae_075.txt.gz
Theta_e
340 337 335 334 332 333 332 331 332 332 333 333 332 331 330 329 328 325 324 324 329 333 332 329 324 317 314 316 317 317 321 325 324 322 322 323 324 327 326 324 323 321 319 317 314 312 312 312 312 311 314 316 321 329 334 333 331 331 328 316 310 311
340 339 338 338 336 334 330 331 334 332 333 334 333 333 332 330 329 328 329 332 336 337 336 336 333 325 319 315 315 316 319 325 326 323 321 321 322 325 327 326 324 322 321 321 319 317 315 314 315 315 316 317 324 332 334 334 333 335 331 317 310 311
340 339 339 338 338 337 333 334 336 334 334 335 334 335 336 333 332 332 334 336 337 337 337 337 336 333 327 318 315 315 317 323 326 325 323 321 321 323 326 327 326 325 322 323 325 325 321 318 318 318 318 322 330 332 331 333 334 333 328 314 311 313
340 339 339 339 338 338 337 337 338 337 337 336 336 337 338 338 336 336 336 336 336 336 337 337 337 336 333 325 318 315 315 320 323 326 325 323 322 321 325 328 328 327 324 326 331 333 329 324 322 324 328 330 332 332 332 334 333 332 327 315 314 313
341 340 340 339 339 339 339 339 338 339 338 337 338 338 338 338 338 338 337 335 336 337 335 337 337 336 337 331 323 317 314 315 320 325 327 327 325 322 323 327 329 328 328 331 335 335 333 331 329 332 334 333 332 333 334 333 333 332 328 319 317 316
341 340 340 340 340 340 339 339 339 339 338 337 338 338 338 338 337 337 337 335 335 337 335 336 336 336 338 335 330 326 318 313 314 320 326 330 331 326 324 327 327 327 331 335 336 335 334 333 333 334 334 332 333 334 334 332 333 332 328 322 320 320
340 340 340 340 341 341 340 340 340 338 337 337 337 338 338 337 336 335 336 336 335 335 335 335 336 336 337 336 335 333 328 322 317 315 321 331 333 329 331 332 325 326 334 337 336 334 333 333 334 334 333 333 333 333 333 332 332 331 329 325 321 321
340 340 339 339 340 340 339 340 339 338 338 338 337 338 338 336 335 334 335 335 335 334 335 335 336 337 336 336 337 334 333 330 325 320 320 331 335 332 335 335 327 329 335 336 334 333 333 333 334 334 334 334 333 333 332 332 331 331 330 327 324 321
339 339 339 339 339 340 339 339 338 337 337 337 337 338 338 338 337 336 337 337 335 335 337 336 335 336 336 337 336 335 335 330 327 329 327 331 334 333 335 335 332 334 335 335 334 333 333 333 333 334 334 333 332 332 332 331 331 330 330 330 328 323
338 337 339 339 338 338 338 338 337 335 335 336 337 338 337 339 338 338 339 339 337 335 335 335 335 336 334 335 337 335 336 332 328 332 331 331 333 333 334 335 334 335 335 335 334 333 333 332 332 333 333 333 332 332 332 331 331 331 330 331 330 325
335 333 335 336 335 335 335 335 337 336 336 336 337 337 336 337 336 337 338 336 336 335 334 334 334 335 332 332 336 335 336 335 332 333 332 331 332 332 333 334 335 335 335 335 334 333 332 331 332 333 333 333 332 333 332 331 331 331 330 330 330 327
334 334 335 335 333 333 334 335 337 337 337 337 336 336 336 336 335 335 334 332 333 334 334 334 333 334 334 333 335 335 336 335 334 333 331 331 332 332 333 334 335 336 336 335 335 334 332 332 332 332 333 332 331 333 332 331 331 331 331 330 330 329
334 334 334 333 332 332 333 334 335 336 337 337 336 336 337 336 335 334 333 331 331 332 333 333 333 334 334 334 334 335 336 336 335 333 332 331 332 332 333 334 334 336 336 335 335 334 333 333 332 333 333 330 331 333 331 331 332 332 331 331 331 330
332 333 333 332 331 331 332 333 333 334 336 337 337 337 338 337 335 334 334 333 331 331 332 333 333 333 333 333 333 333 334 335 336 335 333 331 331 331 331 333 334 335 335 335 335 335 334 334 333 334 331 329 332 331 330 331 332 332 331 331 331 331
332 332 333 333 331 330 331 332 332 333 335 337 337 337 338 337 336 336 334 333 332 330 331 333 333 333 333 333 332 331 331 332 334 336 335 333 332 329 329 332 333 334 335 334 335 335 334 334 334 334 331 330 331 328 328 332 332 332 332 331 331 331
335 333 332 333 332 331 330 331 331 332 333 335 337 337 338 337 337 338 336 335 334 331 330 332 332 332 333 333 332 331 329 329 332 335 335 334 333 331 330 331 332 333 334 334 335 335 334 335 334 334 332 329 326 324 329 332 332 332 332 331 331 331
335 334 334 334 333 332 331 330 331 332 331 333 335 337 337 337 337 337 338 337 336 334 331 331 332 332 332 333 333 332 330 329 331 335 336 334 333 332 332 332 331 332 333 334 335 334 334 335 335 334 330 326 323 325 329 332 333 333 332 332 332 332
334 336 338 337 336 334 333 332 332 332 332 332 335 336 337 338 338 337 338 338 338 336 333 330 331 333 332 333 333 332 330 330 329 332 334 333 333 332 333 333 331 330 331 332 334 334 334 335 335 334 329 324 323 324 329 332 333 332 332 332 332 332
335 338 339 338 337 336 337 336 336 337 335 334 335 337 338 338 338 338 338 338 338 337 335 332 331 332 333 332 333 332 330 331 330 329 330 331 333 333 332 333 332 331 330 331 333 334 334 334 333 333 330 326 324 324 329 332 332 332 332 332 332 331
337 337 336 337 337 337 338 338 338 338 337 336 336 337 338 337 337 339 339 339 338 336 335 334 332 333 333 331 332 332 331 331 331 329 328 329 331 332 333 332 331 332 331 330 332 333 334 334 332 332 330 328 326 327 330 332 332 332 332 331 331 331
339 337 335 336 338 337 338 338 337 338 338 337 338 338 339 338 337 339 339 338 338 336 336 335 334 334 333 331 330 331 332 331 329 328 328 329 330 330 331 332 331 331 331 331 332 333 333 333 332 331 330 329 328 329 330 331 332 332 331 331 331 331
339 337 335 336 337 336 337 338 337 337 337 337 338 338 338 338 338 338 338 336 336 336 337 336 334 333 333 331 329 330 331 331 330 330 329 329 330 329 329 331 331 331 331 331 331 332 332 332 332 331 331 330 330 330 330 331 332 332 331 331 331 331
338 336 335 335 335 336 337 337 337 336 335 335 336 336 336 336 337 336 335 334 334 334 335 335 334 333 334 333 330 329 329 331 332 331 330 330 330 329 328 329 330 330 330 330 331 332 331 330 331 331 332 332 331 331 331 331 331 331 331 330 332 332
336 335 335 335 333 334 335 336 336 336 335 335 336 336 336 336 336 336 335 334 334 333 334 335 335 334 334 334 332 330 328 330 331 331 331 330 330 329 327 327 329 329 330 331 331 333 331 329 329 331 333 332 331 331 331 331 330 331 331 330 331 331
335 334 335 334 333 333 335 336 335 336 336 336 336 336 337 337 335 335 335 334 334 333 333 335 335 334 334 333 333 332 330 329 331 332 332 331 330 329 326 325 327 329 330 330 331 333 332 329 329 330 332 332 331 331 331 331 331 331 331 331 331 330
334 334 334 334 334 334 335 336 336 336 336 336 337 337 336 335 333 333 334 334 334 333 333 334 334 334 334 333 332 332 331 330 330 332 333 332 330 329 327 324 326 330 331 330 331 333 333 331 329 329 330 331 330 331 331 330 331 331 331 331 331 330
334 334 334 333 334 334 335 336 335 336 335 335 336 336 335 334 333 333 333 333 334 334 334 334 334 333 333 333 332 332 332 331 330 331 332 332 331 330 329 325 326 330 331 331 332 334 334 332 329 328 328 329 330 330 330 331 331 331 331 331 331 331
333 333 334 333 333 334 334 335 335 335 335 335 335 335 334 334 333 333 333 333 334 334 334 333 333 332 333 333 332 332 333 332 331 331 331 332 331 330 329 326 326 329 331 333 332 332 333 331 328 328 328 329 329 328 328 331 331 331 331 331 331 332
331 332 333 333 333 333 332 332 333 334 335 335 335 334 334 334 334 334 334 333 334 334 334 333 332 332 333 333 332 332 332 332 331 331 331 331 331 329 328 326 326 328 331 333 331 329 330 329 328 330 330 329 329 329 330 331 331 331 331 331 330 332
330 330 331 331 332 333 332 332 333 334 334 335 335 334 334 335 335 335 334 334 335 335 334 333 332 331 331 331 331 331 331 331 331 332 332 332 331 329 328 327 327 329 330 331 329 328 329 329 331 331 331 330 329 330 332 330 330 332 332 331 331 332
328 329 329 329 330 331 332 332 332 333 333 333 333 333 334 335 334 334 333 333 335 335 335 334 331 330 330 330 330 331 332 331 331 330 331 333 332 330 329 328 327 328 329 330 329 329 329 330 332 332 330 330 330 330 330 330 331 332 332 332 331 331
326 327 327 328 328 329 330 332 332 331 332 331 331 332 333 333 333 333 332 333 334 335 335 334 331 329 330 330 331 331 332 331 331 329 329 331 330 329 330 328 326 327 329 329 328 329 330 329 330 331 329 329 330 329 329 330 331 331 331 332 331 330
324 325 326 326 327 328 329 330 331 331 331 331 332 332 332 333 333 332 331 332 333 333 335 334 332 329 329 330 329 330 331 331 331 329 328 329 327 327 328 327 325 326 328 329 328 328 330 329 329 329 328 328 328 329 329 330 330 331 331 331 331 330
322 324 325 326 326 326 327 327 328 330 330 330 331 332 333 333 333 332 332 332 331 332 332 333 333 331 328 328 327 328 330 330 330 331 330 329 328 327 327 327 326 327 329 329 329 329 329 331 330 328 328 328 328 329 329 330 331 331 331 330 330 330
321 322 323 325 326 326 326 326 326 327 328 329 330 331 332 333 333 333 332 332 331 330 330 331 332 332 330 329 327 326 327 328 329 331 331 330 330 329 329 330 329 329 330 330 330 330 330 330 329 327 328 328 329 329 330 330 330 330 330 330 330 330
320 320 321 323 324 324 324 325 326 326 327 328 329 329 331 332 332 331 330 331 330 329 329 328 329 331 332 331 328 326 326 327 327 329 330 330 332 332 331 331 330 330 330 330 329 329 328 329 329 328 328 328 328 329 330 330 330 330 330 330 330 330
318 319 320 320 321 321 322 323 325 326 326 327 328 329 329 330 331 330 329 330 330 329 329 328 327 328 331 331 330 328 327 327 327 328 328 329 331 332 332 332 331 330 330 330 329 328 328 329 329 328 328 327 327 329 330 329 329 330 331 330 330 330

ECMWFFLT2_850_thetae_078.txt.gz
Theta_e
323 323 326 329 328 328 329 330 330 329 327 326 326 324 323 321 319 316 317 320 324 328 327 321 319 316 315 319 319 321 322 324 325 324 324 324 323 323 321 319 315 310 308 309 309 309 309 310 315 319 323 327 329 332 333 334 330 320 315 313 311 311
332 331 332 334 333 330 330 332 332 332 331 328 328 327 327 326 324 323 325 329 330 334 335 333 329 321 314 316 318 321 323 323 325 325 324 325 325 323 322 320 318 314 312 311 310 311 310 311 315 319 322 324 327 333 335 335 330 316 312 312 311 311
339 338 337 337 336 333 331 332 333 334 334 332 331 330 329 328 328 330 331 334 335 336 338 338 336 331 321 316 316 320 323 324 325 325 324 325 326 325 323 321 321 319 317 316 314 313 313 315 320 323 325 325 328 332 334 334 330 320 315 313 312 312
340 339 338 338 337 335 333 334 335 334 335 335 334 333 333 332 332 333 333 335 337 337 337 337 337 336 332 324 318 316 321 323 324 325 324 323 325 327 325 322 322 321 321 320 320 321 319 319 324 328 328 329 331 333 334 333 329 322 317 314 314 314
340 339 338 338 337 335 333 335 337 336 336 337 335 335 335 333 334 335 335 335 337 337 336 336 336 336 335 332 325 317 316 320 322 325 325 323 322 325 326 325 322 321 326 330 330 332 328 322 326 331 331 332 335 335 333 333 329 323 319 317 316 316
340 339 339 338 336 334 333 335 337 337 337 336 335 336 335 333 334 336 335 334 335 337 336 336 336 336 336 335 332 324 317 315 319 323 325 323 322 323 325 326 325 321 327 335 335 335 334 329 331 335 332 331 334 334 334 333 331 327 324 321 320 318
339 339 338 336 335 335 334 334 336 336 336 336 336 336 335 333 334 336 335 334 335 336 336 335 335 335 335 335 334 331 323 315 314 319 324 324 322 324 324 325 325 323 327 334 336 335 334 333 334 335 332 331 334 334 333 332 332 330 327 323 321 321
339 338 337 335 334 335 333 333 334 335 335 335 336 336 335 334 334 334 334 334 335 335 335 335 334 335 335 335 335 333 330 325 320 318 321 326 328 328 328 330 327 323 327 334 336 335 333 333 334 334 333 334 334 333 333 332 331 330 328 325 322 321
338 337 336 334 335 337 334 332 332 332 334 334 335 336 335 335 334 333 333 334 335 335 335 334 335 335 335 335 335 334 333 332 329 326 325 329 334 332 331 335 331 325 328 335 336 334 333 333 333 334 334 333 332 333 333 331 330 330 330 327 324 323
336 334 335 335 335 336 333 331 331 330 332 333 334 335 337 336 334 332 333 334 334 334 335 335 336 336 334 334 334 334 334 333 331 331 331 330 334 334 332 335 335 330 332 335 335 333 333 333 333 333 334 333 331 332 332 330 330 331 330 329 327 326
334 332 334 336 335 334 333 332 332 331 331 332 334 335 336 337 336 335 335 335 334 334 334 335 336 335 334 334 334 334 334 334 331 329 331 330 332 333 332 334 335 334 334 336 334 333 333 332 332 333 334 333 330 330 330 330 332 331 330 330 329 328
334 333 332 334 333 332 333 333 333 333 332 333 334 335 335 336 337 336 336 336 335 334 334 334 335 334 334 333 332 333 334 334 333 330 329 329 331 333 332 333 335 335 335 335 334 333 333 332 332 332 333 333 332 331 330 331 332 331 331 330 328 327
334 333 331 332 332 331 332 332 333 334 333 335 336 336 336 336 336 336 335 333 332 332 333 333 334 334 334 332 330 331 333 333 333 332 330 328 329 332 332 333 333 335 335 335 334 332 332 332 331 331 333 333 332 331 332 332 331 331 331 331 329 328
334 333 332 332 331 331 331 331 332 334 334 335 336 337 338 339 338 337 337 335 333 332 333 333 334 334 333 333 332 331 333 333 332 331 331 330 329 329 331 332 333 334 335 335 335 333 332 332 332 331 333 333 331 331 333 332 332 331 331 331 331 331
334 332 333 333 332 331 332 332 333 334 336 337 338 339 339 340 340 339 338 338 336 335 335 335 335 335 334 334 334 333 333 333 332 331 331 331 330 328 328 331 332 333 334 334 334 334 333 333 333 333 334 333 331 332 333 332 332 331 331 332 331 332
335 334 335 335 334 334 334 334 335 336 337 338 339 340 340 339 339 339 338 338 337 336 336 335 334 334 333 333 333 333 333 333 332 331 331 331 331 330 328 330 331 332 333 333 333 333 333 333 333 333 334 333 332 333 331 330 331 331 332 332 332 332
338 337 338 337 337 337 337 336 337 338 338 338 339 339 339 339 339 338 338 338 337 336 336 334 333 332 332 333 333 334 333 333 332 331 330 331 332 331 330 329 330 330 332 333 332 333 333 333 334 334 333 332 332 332 328 326 329 332 332 332 332 332
339 340 340 340 340 339 339 338 338 338 338 338 337 337 338 338 338 338 337 335 334 334 335 335 334 334 333 333 333 333 333 333 332 330 330 330 330 331 331 330 330 329 331 333 333 333 333 333 333 333 332 332 332 329 325 326 329 331 332 332 332 331
337 339 339 339 339 338 339 338 339 339 338 338 337 337 338 338 337 337 334 330 329 332 333 334 334 334 334 334 333 333 333 333 333 331 330 329 329 329 330 331 330 330 331 332 332 332 333 333 333 333 332 332 331 327 325 327 329 331 331 331 331 331
338 339 337 336 337 337 338 338 339 339 339 339 338 338 338 337 336 335 332 329 331 332 332 333 333 333 333 333 334 334 333 332 332 332 331 330 330 329 329 330 330 331 331 331 329 329 331 332 332 333 332 332 331 328 327 328 329 331 331 330 331 332
340 339 337 336 337 338 338 339 339 339 338 338 338 337 337 337 336 334 333 331 330 330 331 332 332 331 331 333 334 334 333 332 331 331 331 331 331 330 329 328 329 330 330 329 328 328 330 331 332 332 332 333 332 330 329 329 330 331 330 331 331 332
340 340 338 336 336 337 338 338 339 339 338 337 336 335 335 335 335 333 331 329 329 330 330 331 331 331 331 333 333 333 333 332 331 331 332 332 332 331 329 328 329 330 330 329 328 328 330 331 332 333 332 332 332 331 330 329 330 331 330 331 331 331
339 338 337 335 335 336 337 338 338 338 337 336 335 334 334 333 332 331 330 330 331 332 331 330 331 330 331 332 333 333 334 333 332 331 331 332 332 331 330 329 330 330 330 329 328 327 329 330 331 332 332 332 332 332 330 330 330 330 330 330 330 331
337 336 335 335 333 333 335 336 337 337 336 335 335 334 334 333 332 331 331 331 332 332 332 331 331 331 331 332 333 334 334 333 333 332 331 330 331 332 331 330 330 330 329 328 328 327 328 329 330 332 332 331 332 332 331 331 330 330 330 330 330 331
336 335 335 335 333 333 334 336 337 337 336 336 336 335 334 334 333 332 331 331 332 332 332 332 332 332 333 333 334 334 333 333 333 333 332 330 330 331 332 331 331 330 329 328 327 327 327 329 330 331 331 331 331 331 332 331 331 330 330 330 330 330
335 335 335 334 334 334 335 337 337 337 337 337 337 336 334 333 333 333 332 332 332 332 333 333 334 334 334 334 334 334 334 333 333 333 333 331 330 330 331 332 331 331 329 328 327 327 327 328 331 332 331 331 330 331 331 331 332 331 331 331 330 330
334 334 335 334 333 335 336 337 337 337 337 337 336 336 335 334 333 333 332 333 333 333 334 334 334 334 334 334 334 334 334 334 333 333 332 332 331 330 330 331 332 331 329 328 328 327 326 327 330 331 331 331 331 331 331 331 332 331 331 332 331 331
333 333 334 333 333 334 335 334 334 334 335 336 336 336 336 335 334 334 334 334 334 334 334 334 334 334 334 334 334 334 334 334 333 333 332 332 332 331 330 331 332 331 330 329 328 326 325 327 330 331 330 331 331 331 331 331 331 331 332 332 331 331
331 331 332 332 333 333 333 333 333 333 334 335 336 336 336 336 335 335 335 335 335 334 334 334 333 333 333 333 334 334 334 334 333 333 332 332 332 332 331 331 332 331 330 329 328 327 326 327 329 330 330 330 330 330 330 330 331 332 332 332 332 331
329 330 330 330 331 331 331 332 332 333 334 334 334 334 334 334 334 335 335 335 334 333 334 333 333 334 333 332 332 333 333 333 333 332 332 332 332 332 331 331 332 331 331 329 328 328 327 327 328 329 330 331 330 329 329 330 330 331 331 331 331 331
327 328 328 329 329 330 330 331 331 332 332 332 332 332 332 332 332 333 334 334 334 333 333 333 333 334 334 333 331 330 332 332 332 332 332 332 332 332 331 331 331 331 331 330 329 329 328 326 327 327 328 330 330 329 329 329 329 330 331 331 331 331
324 325 326 327 328 328 329 330 331 332 332 332 332 331 332 332 333 334 334 334 334 333 332 332 332 332 333 333 329 328 331 332 332 331 331 331 331 331 331 331 331 331 331 330 329 329 328 327 327 326 327 329 330 330 330 329 328 329 330 331 331 330
322 323 324 326 326 326 327 327 328 330 330 330 331 331 332 332 333 334 334 334 333 332 332 331 330 331 331 331 329 327 328 329 331 331 330 330 330 330 330 331 332 331 331 329 328 328 327 327 327 327 328 329 328 329 330 330 329 330 330 330 331 331
321 322 323 324 324 324 325 325 326 327 326 327 328 329 330 331 332 333 333 333 333 332 331 330 330 330 330 330 330 328 326 326 328 329 329 329 329 329 330 331 333 332 331 330 329 328 328 327 328 328 328 329 327 326 328 330 331 330 330 330 331 331
321 321 322 322 322 322 322 323 323 324 325 325 326 327 327 329 330 331 332 332 332 331 331 331 331 330 329 329 329 329 328 326 326 327 329 329 329 330 331 331 333 333 332 331 329 328 328 329 329 328 328 328 325 324 326 329 330 330 329 330 331 331
320 320 320 321 321 321 321 320 321 322 322 323 324 326 327 328 329 330 330 331 331 332 331 331 330 330 329 329 328 328 328 327 326 327 329 329 329 330 331 332 332 331 330 330 329 328 328 329 329 329 328 327 326 326 327 329 329 329 329 329 330 331
319 319 319 320 320 320 319 319 320 320 320 320 321 322 324 326 327 328 329 329 330 330 330 330 330 330 330 329 329 328 327 327 327 328 329 329 329 329 330 331 332 331 330 330 330 329 329 329 330 329 327 327 327 328 328 329 329 329 329 329 329 330

ECMWFFLT2_850_thetae_084.txt.gz
Theta_e
318 317 317 316 315 314 314 314 314 314 313 313 312 312 311 312 313 313 314 314 314 314 315 316 315 317 319 319 320 320 319 319 317 314 314 314 313 311 310 310 309 309 309 314 322 328 331 333 333 332 331 328 327 326 324 323 321 318 316 313 312 311
320 321 321 321 321 320 318 316 314 314 313 313 313 313 313 314 314 314 315 315 315 316 319 320 316 315 317 318 318 319 319 319 319 316 316 316 314 312 310 309 309 309 309 313 321 327 331 332 331 330 329 329 329 328 327 325 324 322 318 313 311 311
324 325 326 327 327 326 324 320 318 317 316 315 315 314 314 315 315 316 317 317 317 317 320 322 319 315 315 317 317 317 319 319 319 318 318 318 317 314 311 309 309 309 309 313 319 324 329 330 329 330 330 329 330 328 327 327 327 325 321 316 313 311
326 327 328 329 329 329 328 326 325 324 322 320 319 318 316 315 316 318 320 320 320 320 321 323 324 321 315 315 315 316 318 318 319 319 319 321 320 317 314 311 309 309 309 312 318 324 326 328 329 330 330 328 327 327 327 327 327 327 324 320 317 315
326 328 329 330 331 330 330 329 329 329 328 326 325 323 320 320 322 324 326 327 328 328 327 327 330 330 325 320 317 315 316 317 318 319 319 321 322 320 317 314 312 311 310 312 318 324 326 326 327 329 331 330 328 328 326 326 328 328 327 325 323 319
327 329 329 330 331 331 331 331 331 331 330 330 329 327 325 326 329 330 332 332 332 333 333 333 333 334 333 331 328 323 319 315 316 319 319 320 323 322 319 317 316 314 313 315 319 325 328 328 327 328 331 332 331 330 329 329 330 330 331 330 327 323
333 333 333 332 331 331 331 331 332 333 333 333 332 330 329 331 333 334 334 334 333 334 335 334 333 333 334 334 333 332 328 320 315 318 320 319 321 323 322 320 319 321 321 322 325 328 330 331 330 329 330 332 334 333 332 333 332 332 332 331 329 324
337 337 336 335 334 333 333 333 335 335 335 335 335 335 334 334 335 335 334 333 332 333 334 333 332 333 334 333 333 334 333 329 320 316 318 320 320 321 322 321 321 326 330 331 332 332 333 333 332 332 331 332 334 333 334 334 333 333 332 331 331 327
339 338 337 337 336 335 335 335 336 336 336 336 335 336 336 336 336 335 333 331 332 333 332 331 332 332 333 332 332 332 333 333 329 319 315 317 319 319 321 322 322 325 331 334 335 335 334 334 333 332 332 332 332 332 333 333 333 332 332 332 331 329
338 338 338 337 337 337 336 336 336 336 335 336 336 336 336 335 334 334 332 332 333 332 331 331 332 332 332 332 332 332 331 333 333 328 320 315 316 318 319 321 322 323 327 330 332 334 335 334 334 333 333 333 332 332 331 332 333 332 332 331 330 330
339 338 338 338 337 337 336 336 336 335 335 336 337 336 335 334 333 333 333 333 333 333 331 330 331 331 332 332 332 332 331 331 332 332 328 319 313 316 317 319 321 322 324 326 328 333 335 334 334 333 333 333 333 332 331 332 332 332 332 331 330 330
339 339 338 337 337 337 337 336 336 335 336 336 335 334 334 334 334 334 332 332 333 332 331 329 330 331 331 330 331 332 331 330 330 331 332 327 319 316 316 319 321 323 326 329 328 331 334 335 334 333 333 333 333 333 332 332 332 332 332 331 331 331
338 338 337 337 336 337 336 335 335 335 336 335 333 333 334 334 333 332 331 331 332 332 331 329 329 331 331 330 330 331 331 331 330 330 332 332 328 323 321 322 325 327 329 331 331 331 333 334 335 334 333 333 333 333 332 332 332 332 332 331 331 331
336 336 336 337 336 336 335 334 334 334 335 334 333 334 335 334 333 332 331 331 332 332 330 328 329 331 331 330 330 330 331 332 331 330 330 332 332 330 328 327 327 329 330 330 331 332 332 333 335 334 333 332 333 333 333 332 333 332 331 331 330 331
335 335 336 336 335 335 334 333 333 335 335 335 335 335 335 335 335 334 333 333 333 331 328 327 328 330 331 330 330 330 331 331 331 331 330 331 332 332 331 330 329 330 330 330 331 331 331 332 334 334 334 332 332 332 333 333 333 332 331 331 331 330
336 335 335 336 335 334 334 333 334 335 335 336 336 336 336 335 336 335 332 331 332 330 327 326 327 328 328 329 329 330 331 331 332 331 331 331 332 332 332 331 331 330 330 331 331 330 330 331 333 334 334 333 332 332 332 333 332 331 331 331 331 331
336 335 335 336 335 334 335 334 334 335 336 336 336 336 335 334 335 334 331 330 330 329 327 326 327 327 327 328 328 330 331 331 331 331 332 332 332 332 332 332 331 330 330 331 331 331 330 330 331 333 334 334 332 331 331 332 331 330 330 330 331 332
335 335 335 335 334 335 335 335 336 336 336 336 335 335 335 335 334 334 333 331 329 328 327 326 327 329 330 329 329 329 330 331 331 331 331 332 332 332 332 332 331 331 331 331 331 331 331 330 330 332 334 334 332 331 331 331 330 330 330 329 329 330
336 337 337 336 336 336 336 336 336 336 336 336 337 337 336 336 335 335 334 334 332 331 328 327 328 330 330 329 330 331 331 331 331 331 331 331 332 332 332 332 331 331 331 331 331 330 330 330 330 331 333 334 333 331 331 331 330 330 330 329 327 328
338 339 339 339 338 338 338 337 336 337 337 337 337 337 337 336 335 336 335 335 334 333 330 328 329 330 329 329 330 332 332 332 332 332 332 332 332 332 332 332 332 332 332 332 331 331 331 330 330 330 331 333 333 332 331 331 331 330 330 329 328 328
337 337 337 337 337 336 337 338 337 338 338 338 338 338 337 336 334 335 335 335 335 333 331 330 329 329 330 331 332 333 333 333 333 333 332 332 333 333 333 333 333 333 332 332 331 331 332 331 331 330 330 331 332 332 331 331 331 331 331 330 329 329
336 336 335 336 336 336 337 337 337 338 338 338 338 337 336 334 333 333 333 334 334 333 332 331 330 331 331 332 332 332 333 333 332 332 332 332 332 332 333 333 333 333 333 332 331 331 332 332 332 331 330 330 331 331 331 331 331 331 331 331 330 330
337 336 335 335 335 336 337 337 337 337 338 337 336 335 335 334 334 334 333 333 332 332 332 332 332 332 332 332 333 332 332 332 332 332 332 332 331 332 332 333 333 332 332 332 332 331 331 331 332 332 331 331 330 331 331 331 331 330 330 332 331 330
337 336 335 335 334 334 336 337 337 337 336 335 335 335 335 335 335 335 334 333 333 332 332 333 332 331 331 332 333 332 332 332 332 332 332 332 332 332 332 333 333 333 332 332 332 332 331 331 332 332 332 332 331 331 331 330 330 329 330 331 332 330
336 336 335 334 334 333 334 335 336 337 336 335 336 336 336 335 335 335 335 334 334 334 333 333 333 332 332 332 332 332 332 332 332 332 332 332 332 332 332 332 332 333 332 332 332 331 331 331 332 332 332 332 331 331 331 330 330 330 330 331 331 330
336 335 334 334 333 333 333 334 336 336 336 336 336 336 335 335 334 334 335 335 334 334 334 333 333 333 332 332 333 332 332 332 332 332 332 333 333 332 331 331 332 333 332 331 331 331 330 331 331 331 332 332 331 331 331 330 330 330 330 330 330 329
335 334 334 333 333 334 333 334 335 336 335 335 335 335 334 334 334 334 334 334 334 334 334 333 332 333 333 332 333 332 332 332 332 332 332 332 331 331 331 330 331 332 331 331 331 331 330 330 331 331 331 332 331 331 331 330 330 330 330 330 329 329
333 333 333 333 333 334 334 334 335 335 335 334 334 334 334 334 334 334 334 334 334 334 334 333 332 332 332 332 332 332 331 331 331 331 331 330 329 329 330 330 331 331 331 331 331 331 331 331 331 331 331 331 332 331 331 330 330 329 330 330 329 329
331 331 331 331 332 333 333 333 334 334 334 334 333 333 333 333 333 333 334 333 333 333 333 333 333 333 332 331 331 331 330 330 330 331 331 329 328 328 328 329 330 331 331 330 330 330 331 331 331 331 331 331 331 331 331 331 330 329 329 330 330 329
327 328 329 330 330 331 331 331 331 332 332 332 331 332 332 332 332 332 332 332 332 332 332 332 332 333 332 331 331 331 330 330 330 330 330 329 328 327 327 327 328 329 330 329 329 329 330 329 330 331 331 331 332 330 330 330 329 329 329 330 330 330
324 324 325 326 328 328 328 328 327 328 329 329 329 329 330 331 331 331 331 331 331 331 331 331 331 332 331 331 331 331 330 330 330 329 329 328 328 328 328 327 327 329 329 329 329 329 329 329 330 331 331 331 331 330 329 329 328 328 329 330 330 330
321 321 321 322 323 324 325 324 324 324 324 325 325 326 327 327 328 328 328 329 331 331 330 329 330 330 330 330 330 330 330 330 329 329 328 328 328 328 328 327 328 328 329 329 329 329 329 329 329 330 331 331 330 329 328 327 326 326 328 329 330 330
320 319 319 319 320 320 321 321 321 321 321 321 322 324 324 325 325 325 325 327 328 329 328 328 328 328 328 329 329 329 329 329 329 329 329 328 328 328 328 328 328 328 328 328 328 329 329 329 329 330 330 331 331 330 328 327 326 327 328 329 330 331
318 318 318 318 318 319 319 320 320 320 319 319 319 320 321 322 322 323 324 324 325 326 326 327 327 326 326 327 327 327 327 327 328 328 328 328 328 328 328 328 328 328 328 328 328 329 329 329 329 330 330 331 331 330 329 327 327 328 329 330 330 330
318 317 317 317 317 318 318 318 318 318 318 318 318 317 318 318 318 320 321 322 323 324 325 325 325 325 325 325 326 326 326 325 326 327 327 328 328 328 329 329 328 328 328 328 328 328 328 328 329 329 330 330 331 330 329 327 328 329 330 330 330 329
317 317 317 317 317 317 317 317 317 317 316 316 316 316 315 315 316 317 318 319 320 320 321 321 321 322 322 322 323 324 324 325 326 326 326 326 327 328 329 328 328 328 328 328 328 328 328 328 328 329 330 330 330 330 329 328 327 328 329 330 330 329
316 316 315 315 316 316 315 315 315 315 315 315 315 314 314 314 314 315 315 316 316 317 317 318 318 319 319 320 320 320 321 323 324 325 325 326 326 327 328 328 328 328 327 327 327 327 327 328 327 328 329 330 330 330 328 328 328 327 328 330 330 330

ECMWFFLT2_850_thetae_087.txt.gz
Theta_e
317 317 317 317 316 315 314 314 313 312 311 310 310 310 310 311 312 312 314 315 316 316 315 316 317 318 319 319 321 322 321 320 317 315 315 314 311 309 309 309 308 310 318 326 328 330 331 331 331 331 331 329 327 325 325 325 323 321 318 316 313 311
316 316 316 315 314 314 314 314 314 313 312 312 311 311 311 311 311 311 313 315 315 315 314 314 314 315 317 318 319 320 320 320 318 316 316 316 314 310 308 308 309 310 318 325 328 331 331 330 331 331 330 328 327 327 327 326 325 325 323 320 317 315
316 316 315 315 315 314 314 314 314 314 313 313 313 312 312 312 311 311 312 314 315 315 316 317 315 314 315 315 316 318 319 319 319 317 317 317 316 312 309 308 309 311 318 325 329 331 331 330 330 330 329 328 328 328 328 327 327 326 327 325 322 320
318 319 320 320 319 317 317 316 316 315 315 315 315 314 314 313 312 312 312 314 314 315 317 319 320 316 313 313 314 316 318 319 319 318 318 318 318 315 312 308 308 311 318 325 330 331 331 330 329 329 328 328 329 328 327 328 328 327 329 329 327 326
323 324 325 325 324 324 324 323 323 322 321 321 321 321 321 319 317 316 317 318 318 320 320 321 327 325 318 317 315 313 315 318 319 319 319 319 320 318 315 311 309 311 317 324 329 331 331 330 330 329 328 327 328 328 328 329 329 329 330 330 330 329
326 328 328 328 328 328 329 329 329 328 328 328 329 328 328 326 325 325 326 328 327 328 328 328 332 332 329 328 326 321 318 316 317 318 319 319 321 321 318 314 310 310 315 322 328 330 330 329 329 329 329 329 328 329 330 331 331 332 331 331 331 330
327 328 329 330 330 331 331 331 331 330 330 331 331 331 329 329 330 331 331 333 332 331 332 333 333 333 333 334 333 331 328 324 318 316 318 319 321 322 321 318 313 312 314 321 327 329 328 328 329 330 331 331 330 330 331 332 333 333 332 332 331 330
327 329 330 331 331 331 331 331 333 333 333 334 333 332 331 331 332 333 333 333 333 332 333 333 333 332 333 334 334 334 333 332 327 320 317 318 320 322 322 321 318 315 315 320 325 328 329 330 331 331 332 331 331 332 332 332 333 333 332 331 331 330
331 334 333 333 333 333 332 332 334 335 335 335 334 334 334 333 333 334 334 334 333 333 333 333 333 333 332 333 333 333 333 333 332 328 320 317 319 321 322 322 322 321 321 322 324 328 332 332 332 333 332 331 331 331 331 331 331 332 332 331 331 330
336 337 336 336 335 334 334 334 335 336 335 335 334 334 334 334 334 334 334 334 334 333 333 333 333 333 332 332 332 332 332 332 333 332 328 321 318 320 321 322 323 324 326 328 330 332 334 334 333 333 332 331 331 331 331 331 331 331 332 331 331 330
338 337 337 336 336 336 335 334 335 336 335 334 334 333 333 333 333 333 333 333 333 333 333 333 333 333 333 333 332 331 331 332 332 333 332 329 322 318 319 321 322 323 326 330 333 334 333 334 334 334 333 332 332 332 332 332 332 332 332 332 331 331
338 338 337 336 336 336 336 335 335 335 334 333 333 332 332 332 332 333 334 334 334 334 334 334 334 333 332 332 332 332 331 331 332 332 333 333 329 322 317 319 321 321 323 325 329 329 329 331 333 334 333 333 333 333 332 332 333 333 332 332 332 331
338 338 337 336 336 337 336 335 335 334 333 332 332 331 332 333 333 334 334 334 335 335 334 334 334 333 332 332 332 332 332 331 332 332 332 332 333 329 321 318 319 320 320 322 324 325 327 327 330 333 334 334 333 333 333 333 333 333 332 332 332 331
338 337 337 336 336 336 335 334 334 333 333 331 331 332 333 334 334 335 335 336 336 335 335 335 334 332 331 332 332 332 331 331 331 331 332 332 333 333 329 324 322 322 323 323 324 327 329 329 329 331 334 334 333 333 332 333 333 333 332 332 332 332
337 336 336 336 335 335 334 333 333 333 333 333 333 333 333 334 335 335 336 337 336 335 335 335 333 330 328 330 331 331 331 331 331 331 332 332 332 332 332 331 329 328 328 328 328 329 330 330 330 330 332 334 333 331 331 332 332 332 332 332 332 332
336 335 336 335 335 335 334 333 333 332 332 333 334 334 334 334 334 334 335 336 335 335 334 334 333 330 328 328 329 329 330 330 332 332 332 332 331 331 332 332 332 332 331 331 330 330 330 330 330 331 332 332 331 330 330 331 331 331 331 331 332 332
335 335 335 335 334 334 334 333 333 333 333 334 334 334 334 334 334 333 334 334 335 335 333 333 332 331 330 329 329 329 330 331 332 332 332 332 332 332 332 332 332 333 333 332 331 330 330 330 330 331 332 331 330 331 331 331 331 331 331 330 331 331
335 334 334 335 334 334 334 334 334 334 335 335 335 334 334 334 334 334 334 334 335 335 334 333 332 332 331 330 331 331 332 332 332 332 332 332 332 332 332 332 333 333 333 333 332 331 331 330 330 331 331 331 331 331 331 331 332 331 330 330 330 331
335 334 334 334 334 334 334 334 335 335 335 336 335 335 335 335 335 335 335 335 335 335 334 333 332 331 331 332 332 332 333 333 333 333 333 332 332 332 332 332 333 333 333 333 332 332 332 331 331 331 331 331 331 331 331 331 332 332 331 330 330 330
337 336 336 336 335 335 336 336 336 336 335 336 336 336 336 336 336 336 336 335 335 335 335 333 332 331 331 331 332 332 333 334 334 334 333 332 332 332 332 332 332 333 333 333 333 333 332 332 332 331 331 331 331 331 330 331 331 332 331 331 330 330
338 338 338 338 337 337 337 337 336 336 336 336 336 337 337 337 336 335 335 335 334 334 334 333 332 331 331 331 332 332 333 333 333 333 333 332 332 332 332 331 332 333 333 333 333 333 333 332 332 331 331 331 331 330 331 331 330 331 331 331 331 330
338 337 337 337 337 336 335 335 335 335 336 336 336 337 337 336 335 334 333 332 333 332 332 332 331 331 331 331 332 332 332 332 332 332 333 333 333 333 332 332 332 332 332 332 332 332 333 333 332 332 332 332 331 331 331 330 330 330 330 331 331 331
336 336 335 335 335 335 334 334 334 335 335 336 336 336 336 334 333 332 333 332 331 331 330 331 332 331 332 332 332 332 332 332 332 333 332 332 332 332 332 332 332 332 332 332 332 332 332 332 332 332 332 332 331 331 331 330 330 329 329 330 330 330
336 335 334 334 333 333 334 334 335 335 336 336 336 336 334 334 333 333 333 332 332 331 331 332 332 331 331 332 332 332 332 332 332 332 332 332 332 332 332 332 332 332 332 332 332 332 332 331 332 332 332 331 331 331 331 331 330 329 329 329 330 330
336 335 334 333 332 333 333 333 334 335 336 336 336 335 334 334 334 334 334 333 333 333 332 332 332 331 331 331 331 331 331 331 331 331 331 332 331 331 331 330 330 330 331 331 331 331 331 331 331 331 331 331 331 331 331 331 330 329 329 329 329 330
336 334 333 332 333 333 333 332 333 334 335 336 335 335 334 334 334 333 334 334 333 333 333 332 332 332 331 331 331 331 331 331 331 331 330 330 330 330 329 328 328 329 329 330 331 331 331 331 331 330 331 331 331 331 331 331 330 330 330 329 329 329
335 333 332 333 333 333 333 332 332 333 335 335 335 334 333 333 333 333 333 332 332 332 333 332 332 331 331 331 331 331 331 331 331 330 329 329 329 329 328 327 327 327 328 328 330 331 330 330 330 329 330 330 331 331 331 331 330 330 330 330 329 329
334 334 333 332 332 332 332 332 332 333 335 334 334 334 334 333 332 332 332 331 331 332 332 331 331 331 331 330 330 331 331 330 330 329 329 328 328 329 328 327 326 326 326 326 328 330 330 329 329 329 329 329 329 329 330 331 331 330 330 330 329 329
333 333 332 331 331 331 332 333 333 333 333 333 333 333 333 333 332 331 331 331 331 331 331 331 332 332 331 330 330 331 331 330 330 329 329 328 328 327 327 327 327 326 326 325 327 329 329 329 329 329 329 328 328 328 329 330 330 330 331 330 330 329
332 331 331 330 330 331 331 331 332 333 332 332 332 332 332 332 331 330 329 329 330 330 331 331 331 330 330 330 330 330 330 330 329 328 328 328 328 327 326 326 327 326 326 326 327 328 329 328 328 328 329 329 329 329 330 330 330 330 330 330 330 329
328 328 328 329 329 330 330 329 330 331 331 332 331 331 331 330 329 328 328 329 329 330 330 330 329 328 328 328 329 330 329 328 328 327 327 327 327 327 327 326 326 326 326 326 327 328 328 328 328 328 328 329 329 329 330 330 330 330 330 330 330 330
324 324 324 325 326 327 327 327 327 328 328 329 329 329 329 327 326 326 327 328 328 328 328 328 328 328 327 327 328 329 328 327 327 326 326 326 326 326 327 327 326 326 326 327 327 327 327 327 327 327 328 328 329 329 329 329 330 330 329 329 329 329
322 321 321 321 322 323 324 324 324 324 325 325 325 325 325 324 324 325 325 325 325 325 325 326 326 325 325 326 326 326 326 325 325 325 325 325 325 325 326 327 327 326 326 327 327 327 327 327 327 327 328 328 329 329 329 329 330 329 329 329 329 329
320 319 319 319 319 320 320 321 322 322 322 322 322 321 322 322 323 323 323 323 324 324 324 324 324 324 324 324 325 324 323 323 323 323 324 323 323 324 325 325 326 326 327 327 327 327 327 327 327 328 328 328 328 329 329 329 330 329 329 329 329 328
318 318 318 318 318 318 318 319 319 320 319 319 319 319 319 319 320 320 320 321 321 321 321 322 322 322 322 322 321 321 320 320 320 321 321 322 322 323 323 324 325 326 327 327 327 327 327 327 327 327 327 328 328 328 329 329 329 329 329 329 329 328
317 317 317 317 316 317 317 317 317 318 317 316 316 316 316 316 316 317 316 317 317 317 317 318 318 318 318 318 318 318 318 318 318 318 319 319 320 321 322 322 323 324 326 327 327 327 327 326 325 325 326 327 327 327 328 328 329 329 329 329 329 329
316 316 316 315 315 315 315 315 315 316 315 314 314 314 314 314 314 314 314 314 314 314 314 314 314 314 314 315 315 315 316 317 317 318 318 318 318 319 319 320 321 322 323 325 326 326 326 325 325 325 325 326 327 327 327 328 328 329 329 329 329 330

ECMWFFLT2_850_thetae_093.txt.gz
Theta_e
332 331 329 327 324 321 318 314 310 309 310 311 316 318 316 318 322 323 322 323 323 322 321 319 319 321 320 319 321 320 320 318 315 316 314 311 308 308 308 308 312 319 323 323 324 325 326 325 326 326 324 323 323 324 325 323 322 321 321 321 321 320
329 327 325 322 320 319 316 312 310 309 310 312 312 312 314 318 323 323 318 317 318 317 316 315 316 317 318 319 319 319 320 318 317 317 316 314 310 308 308 308 310 317 322 323 324 326 327 326 326 327 325 324 324 325 326 326 325 324 324 324 324 324
325 322 320 319 318 317 314 312 310 310 312 313 312 311 313 315 318 318 316 315 316 317 317 317 315 316 317 317 318 319 320 320 318 317 318 317 313 309 308 308 308 314 321 324 325 327 328 328 328 327 326 325 325 324 326 327 327 327 328 327 327 326
320 318 319 318 316 315 313 313 311 312 314 314 312 312 313 313 314 315 315 317 319 322 322 322 319 317 318 318 318 319 319 320 320 319 319 319 317 313 309 308 308 312 320 324 326 328 329 330 330 329 328 327 326 325 327 328 328 329 329 329 328 328
318 318 318 316 315 314 313 313 312 313 315 315 314 314 314 314 315 317 320 324 328 329 330 330 328 327 328 328 327 325 323 321 320 321 321 320 320 318 313 309 308 311 320 325 328 330 331 331 331 331 330 329 328 328 328 328 330 330 329 329 329 328
318 317 316 314 314 314 314 315 317 318 318 318 317 317 317 318 320 325 329 332 334 334 334 334 334 334 334 334 334 333 331 327 322 320 321 322 322 321 319 313 308 310 319 326 329 331 331 332 331 331 331 331 331 331 330 329 330 331 330 330 329 329
316 316 316 316 316 318 320 322 323 324 323 323 321 320 322 325 327 330 333 334 335 334 334 334 334 335 334 334 335 334 334 333 329 324 321 321 323 323 322 318 312 310 318 326 328 330 331 331 331 331 331 331 332 333 333 331 331 331 331 331 330 330
317 319 320 322 323 325 327 327 328 328 327 326 323 322 325 329 331 332 334 334 335 335 334 334 334 334 334 334 334 333 333 334 334 332 327 323 322 324 324 323 317 312 316 324 327 329 330 331 330 330 330 331 332 333 333 333 332 331 331 331 331 331
323 325 325 326 327 329 331 331 331 332 332 330 328 327 329 331 332 333 334 335 335 335 334 334 334 334 333 333 333 333 333 333 334 334 332 328 323 322 323 324 323 317 315 320 326 327 328 329 330 330 330 330 331 332 333 333 332 332 332 332 332 332
327 328 328 328 329 331 332 333 334 334 335 334 333 333 334 334 334 334 334 335 334 334 334 335 335 334 333 333 332 332 333 333 333 332 333 333 328 324 323 323 324 323 319 317 321 325 327 329 329 329 329 329 329 330 332 333 333 332 332 332 332 332
328 329 330 330 330 332 332 334 335 335 335 335 335 335 334 334 334 334 334 334 334 334 334 334 334 334 333 332 331 331 332 332 333 333 333 332 332 330 328 326 324 324 323 321 320 321 324 327 328 329 328 329 329 329 331 333 333 332 332 332 332 332
331 332 333 332 332 333 334 334 335 335 335 335 334 334 334 334 334 334 333 334 334 334 334 334 333 333 332 332 331 331 331 331 332 332 332 332 332 332 332 331 329 326 324 323 323 322 323 325 326 327 327 329 330 330 331 332 332 332 332 331 332 332
335 335 336 335 335 335 335 334 334 334 334 334 334 333 333 333 334 333 333 334 335 334 334 334 334 333 332 330 330 330 331 331 331 330 331 332 332 332 331 332 333 332 329 326 324 323 323 324 325 324 325 328 329 329 329 329 329 329 329 331 332 332
337 336 336 336 335 335 335 334 334 333 332 333 333 332 333 333 333 334 334 335 335 334 333 333 333 333 331 328 328 329 330 330 330 330 330 331 332 331 331 331 332 332 332 331 328 326 325 324 324 324 324 325 325 325 325 326 327 328 328 330 332 332
337 337 336 335 335 335 334 333 332 332 332 332 332 332 333 334 334 335 335 335 334 334 333 332 332 332 329 327 328 328 329 329 329 330 330 330 331 331 331 332 331 331 331 331 331 330 329 329 328 328 327 327 327 327 326 327 328 328 328 329 330 330
337 337 335 334 335 334 333 332 332 332 332 332 332 333 334 335 335 335 335 335 334 334 334 333 332 332 330 328 329 329 330 330 330 329 329 330 330 331 331 331 331 331 330 331 331 331 331 331 331 331 331 330 331 330 330 329 328 328 328 329 329 329
337 336 335 334 334 333 332 332 332 333 333 333 334 334 335 335 335 335 335 335 335 335 335 335 334 333 331 330 329 330 330 330 329 329 329 330 330 330 330 331 331 331 331 331 331 331 331 331 331 331 331 331 331 331 331 330 330 329 329 329 329 329
336 335 334 333 333 332 331 331 332 333 334 335 335 335 335 336 335 335 335 335 335 335 335 334 334 334 332 330 330 330 330 330 329 329 329 330 330 331 330 330 330 330 330 330 330 331 331 331 330 330 330 330 330 331 331 330 330 330 330 330 330 330
335 334 333 332 332 332 332 332 333 334 335 335 336 335 335 336 335 335 336 335 334 334 334 334 334 334 332 331 330 330 329 329 329 330 330 330 330 331 331 331 331 331 331 331 331 331 331 330 330 329 328 329 329 330 330 330 330 330 331 331 331 331
333 334 333 332 332 332 333 333 334 335 335 335 336 335 335 335 335 336 335 334 333 333 333 333 333 332 331 331 330 330 330 330 330 330 330 330 330 330 331 331 331 331 331 331 331 330 331 330 330 330 329 329 329 329 330 330 330 330 330 331 331 331
333 334 333 334 334 335 335 335 335 336 336 336 337 337 336 335 335 335 334 333 333 333 333 333 332 332 331 331 331 331 331 331 331 331 331 330 330 330 331 331 330 330 330 330 330 330 330 330 330 330 330 330 329 329 330 329 328 328 329 329 329 330
335 335 335 335 336 335 334 334 335 335 336 336 336 336 336 335 334 334 333 332 332 333 333 333 333 332 332 332 331 331 331 331 331 331 331 331 331 330 330 330 330 329 329 329 330 329 329 329 329 329 329 329 329 329 329 328 328 328 328 328 329 329
335 335 335 334 334 333 333 333 333 334 334 335 335 334 334 334 333 333 333 332 332 332 332 332 332 331 331 331 331 331 331 331 331 330 330 330 330 330 330 329 329 329 329 329 329 329 329 329 328 328 329 329 329 330 329 329 329 329 328 327 328 328
333 333 333 332 332 331 332 332 333 334 334 334 334 334 333 333 332 332 331 330 331 331 330 330 330 329 329 329 330 330 330 330 329 328 328 329 330 329 329 329 328 328 328 328 329 328 328 328 328 327 329 329 329 329 330 330 330 329 328 327 327 327
333 333 332 331 331 331 331 332 332 333 333 333 334 333 332 331 331 330 329 328 329 328 328 328 328 327 327 327 327 327 327 327 328 327 327 328 329 329 329 329 328 328 328 328 328 327 327 328 327 327 327 328 328 329 329 329 328 328 328 327 328 327
333 333 333 332 332 332 332 331 331 331 331 331 331 330 330 330 330 329 328 328 328 328 327 327 327 326 326 326 326 326 326 326 326 326 326 326 326 327 327 327 327 327 327 327 327 327 327 327 327 326 327 328 327 327 328 327 328 329 328 327 327 328
334 333 333 333 332 332 332 331 330 330 329 330 330 329 329 329 329 328 328 329 328 327 327 327 326 326 325 326 326 326 326 325 325 324 324 324 324 325 325 326 326 326 326 327 328 328 328 327 327 326 326 327 326 327 329 328 327 328 328 327 326 327
333 333 332 332 332 331 331 330 329 329 328 329 329 329 328 328 328 328 328 328 327 327 326 326 326 325 325 326 326 326 325 325 324 324 324 324 324 324 325 325 324 323 324 325 326 327 328 328 327 327 326 327 326 327 328 327 327 327 327 328 327 326
331 330 330 330 330 330 330 329 329 328 328 328 328 328 328 328 328 328 327 327 327 326 326 325 325 324 325 325 325 325 324 324 323 323 323 323 324 323 322 322 321 321 321 322 323 324 325 326 326 327 327 327 327 326 327 327 327 326 327 329 328 327
330 329 329 329 329 329 329 328 328 328 327 327 327 327 327 327 327 327 326 326 325 324 324 324 323 323 323 323 323 323 323 322 321 320 320 320 320 319 318 317 317 317 318 318 320 321 322 323 323 324 324 325 325 326 326 327 327 326 326 328 328 326
328 328 328 328 328 328 327 327 327 326 326 325 325 325 325 325 325 324 324 323 322 322 321 320 320 320 320 320 320 320 319 318 318 317 315 315 315 315 314 314 314 314 315 315 316 317 318 319 320 320 321 322 323 325 326 326 326 326 326 327 327 326
327 327 327 327 326 326 325 325 325 324 323 323 323 323 323 323 322 322 321 320 319 318 317 316 316 315 315 315 315 314 314 314 314 313 313 312 312 312 312 312 312 312 312 313 313 313 314 314 315 316 316 318 319 322 324 325 326 326 325 325 326 326
327 326 325 325 324 323 323 323 322 321 321 321 320 320 320 319 319 319 317 316 315 314 314 313 313 313 312 312 312 312 312 312 312 312 311 311 311 311 311 311 311 312 312 312 312 312 312 312 312 312 313 313 314 316 318 322 323 324 325 325 325 325
325 324 323 322 321 321 321 320 320 319 318 318 318 317 316 316 316 315 314 314 313 313 312 312 311 311 311 311 311 311 311 311 311 311 311 311 311 311 311 311 311 311 311 311 312 312 312 312 312 312 313 312 312 313 313 316 318 321 323 324 324 325
323 321 321 320 319 319 319 318 318 317 316 316 316 314 314 314 313 313 313 312 312 311 311 311 311 310 310 311 310 310 311 310 310 311 311 311 311 311 311 311 311 310 311 310 311 311 311 312 312 312 312 313 313 313 313 313 314 316 318 321 323 324
320 320 319 318 317 316 316 316 316 315 314 314 313 313 312 312 312 312 311 311 310 311 310 310 310 310 310 310 310 310 310 310 310 310 310 310 309 309 309 309 309 309 309 309 309 310 310 310 311 311 312 312 312 313 313 313 314 314 314 316 320 322
318 318 317 316 315 314 314 314 314 313 312 312 311 311 311 311 311 311 310 310 310 310 310 310 309 309 309 309 309 309 309 308 308 308 307 307 307 306 306 306 306 306 306 307 307 307 308 308 309 310 310 311 311 312 313 313 313 314 313 313 317 320

ECMWFFLT2_850_thetae_096.txt.gz
Theta_e
339 338 337 337 337 330 319 316 314 315 323 330 330 330 330 329 330 329 329 329 329 328 328 328 328 326 324 324 324 320 318 316 315 314 310 308 308 308 308 308 312 317 321 324 325 326 327 328 328 326 325 323 321 326 330 329 329 330 332 328 325 326
338 338 337 336 336 329 321 322 323 324 327 329 327 327 330 330 332 330 327 329 326 323 324 325 323 323 325 326 326 321 318 317 316 316 313 310 308 308 308 308 310 314 321 323 325 328 327 326 326 326 325 322 325 331 331 328 331 332 331 331 330 327
337 337 336 335 334 331 330 330 329 328 327 327 328 329 331 330 331 330 327 325 321 321 323 322 318 319 321 322 322 320 319 319 316 317 317 314 310 308 308 308 309 313 319 323 327 331 330 329 326 325 324 324 330 332 329 328 331 333 332 331 330 328
336 335 334 333 332 331 331 331 331 330 327 328 330 330 329 329 329 326 323 321 323 327 327 325 325 326 326 323 322 320 320 321 321 321 319 319 318 312 309 308 308 310 318 326 331 333 333 334 331 327 325 328 332 330 328 331 331 333 333 331 330 328
334 333 333 332 332 331 331 331 332 330 330 330 331 330 329 328 326 323 325 329 332 334 333 333 333 333 333 331 330 328 325 324 325 324 321 326 326 320 319 317 310 309 319 329 333 332 333 334 332 330 329 329 330 326 327 331 331 332 333 331 329 327
333 332 333 332 328 329 331 332 331 330 331 332 331 329 328 328 328 330 334 336 336 336 336 336 335 334 335 334 335 335 333 331 330 326 322 327 327 322 327 325 316 311 316 326 331 332 332 332 331 331 331 331 329 326 326 330 332 330 330 330 328 327
331 330 332 331 325 327 333 333 332 331 332 333 332 330 330 331 333 335 336 336 336 336 336 337 336 335 334 335 336 335 336 335 334 333 326 325 323 322 327 327 322 315 312 321 330 331 331 331 330 330 332 332 330 328 326 329 332 330 327 327 327 327
328 329 332 332 329 331 334 333 331 332 332 331 332 332 333 334 335 336 336 336 336 335 337 338 337 336 335 334 334 335 336 335 335 336 334 329 326 324 327 327 325 322 320 325 331 332 332 332 330 330 332 333 332 331 329 329 331 329 328 328 328 327
327 331 334 333 333 334 335 335 334 333 332 330 331 332 333 335 335 336 336 336 336 335 337 338 338 337 336 335 334 334 335 335 334 334 335 334 331 327 327 328 327 328 328 329 331 332 332 332 331 331 332 332 333 332 331 330 330 330 331 331 331 330
330 333 334 334 335 335 336 336 336 336 335 333 333 334 335 336 336 336 336 335 335 335 335 337 336 335 335 335 335 334 334 334 334 333 333 334 333 331 330 330 329 330 331 330 330 331 332 332 332 332 332 332 333 332 331 331 331 333 333 333 333 332
332 333 334 335 335 335 336 336 337 337 337 336 336 336 336 336 336 336 335 335 335 334 335 335 335 334 334 334 334 334 334 334 334 334 333 333 333 333 332 332 331 331 330 329 330 331 331 331 331 332 332 332 333 332 332 332 332 333 333 334 334 333
331 331 334 334 333 334 336 337 337 337 337 337 336 336 336 335 335 335 335 335 335 335 335 335 334 334 333 333 333 332 333 333 333 333 333 333 333 333 333 333 333 332 331 329 328 329 330 330 331 331 331 331 332 332 332 333 334 333 333 333 333 333
334 333 334 334 334 335 336 337 337 336 336 335 335 336 336 336 335 335 335 335 335 335 334 334 334 334 332 331 330 329 331 331 332 333 333 333 334 334 334 334 334 334 334 333 332 331 331 331 331 331 331 332 332 332 332 333 333 334 333 332 331 332
336 335 336 336 337 336 336 336 336 335 335 335 335 336 336 335 335 335 335 335 334 334 333 332 333 333 330 328 328 328 329 329 330 332 332 332 333 333 333 334 335 336 335 334 335 336 335 334 334 333 333 333 333 332 331 331 332 333 334 333 332 332
337 337 337 337 337 336 336 336 336 336 335 335 335 335 336 336 335 335 335 335 334 333 333 332 332 332 329 327 329 329 329 329 330 330 330 331 330 331 331 332 333 334 334 334 335 337 336 336 335 335 334 334 335 334 332 332 333 333 334 334 334 334
338 338 337 337 337 336 335 335 335 335 335 335 334 335 335 335 335 335 335 335 334 334 335 334 333 333 331 329 329 329 330 330 330 329 330 331 330 330 331 331 331 332 331 332 333 334 334 334 334 334 333 333 334 333 332 332 333 334 335 335 335 335
338 337 336 336 336 335 334 335 335 335 335 335 335 335 335 335 335 335 335 335 335 335 335 335 335 334 334 332 331 330 330 331 330 329 330 331 330 330 330 331 331 332 331 331 331 332 332 333 332 332 332 331 331 331 331 331 332 333 334 335 334 334
338 336 336 336 335 335 335 336 335 335 335 336 336 335 335 336 336 336 337 336 335 335 334 335 334 334 334 332 331 331 330 330 330 330 330 331 330 331 331 331 331 332 332 332 332 332 332 332 332 332 332 331 331 330 331 331 331 331 332 333 333 334
337 336 335 335 335 335 335 335 335 336 335 336 336 336 336 336 336 336 337 336 335 334 334 334 333 333 333 333 332 331 331 331 331 330 331 331 330 330 331 331 332 332 332 332 332 332 332 333 332 332 333 332 332 331 331 331 330 330 332 333 333 334
337 336 335 334 335 335 336 335 336 336 336 336 336 335 335 335 335 335 335 334 334 334 334 334 333 333 333 333 332 332 331 331 331 331 331 330 331 331 331 331 331 332 331 331 331 331 331 332 332 332 332 332 332 332 331 331 330 330 331 332 333 333
337 336 336 336 336 336 337 337 336 336 336 336 336 336 335 335 335 334 333 332 332 333 333 333 333 333 333 333 332 332 332 332 331 331 331 331 331 331 331 331 332 332 331 331 331 331 331 331 331 331 331 331 331 332 332 331 330 330 330 329 330 331
336 336 336 337 337 336 337 337 336 336 336 336 336 336 336 335 334 334 333 332 331 331 331 331 332 332 332 332 332 332 332 331 331 331 331 331 331 331 331 331 331 331 331 330 331 331 330 330 331 331 330 330 331 331 332 333 332 331 330 329 329 330
336 336 336 336 336 336 336 336 336 336 334 334 335 334 334 334 333 333 332 331 330 330 330 330 330 331 331 331 331 332 331 330 330 330 330 330 330 330 330 330 331 330 330 330 330 329 329 330 331 331 330 330 331 331 331 333 333 332 331 331 331 330
336 336 336 335 335 335 334 333 333 333 332 333 333 333 333 332 332 331 330 329 329 328 328 328 328 329 329 329 329 330 329 330 329 328 328 329 328 329 329 330 330 329 329 330 330 329 329 329 330 330 330 330 330 330 330 331 331 331 331 332 332 331
336 335 335 334 334 335 334 333 332 332 332 333 333 333 332 331 331 329 328 328 328 328 327 327 327 327 326 326 326 327 327 327 326 326 326 326 326 327 328 328 328 328 328 329 329 329 328 329 330 330 330 330 329 329 329 329 329 330 331 330 331 330
335 335 334 334 334 334 334 334 333 333 333 333 332 331 330 330 329 328 328 328 328 328 327 327 327 326 325 325 326 326 326 325 324 323 324 324 324 325 325 325 325 325 326 327 327 328 329 330 329 329 330 329 329 329 329 329 329 330 330 329 330 330
334 334 333 333 333 332 333 333 333 332 332 332 331 329 329 328 328 327 328 328 327 327 326 326 326 324 324 325 325 325 325 325 323 322 322 322 322 322 321 321 321 320 321 322 324 326 327 327 328 329 329 328 328 329 329 329 330 329 329 329 329 329
333 332 331 332 331 331 331 331 331 330 330 329 329 328 328 327 327 328 327 326 326 325 325 325 324 323 323 323 324 323 323 322 322 320 319 318 317 317 316 316 316 315 315 317 320 322 322 323 325 326 326 326 327 328 328 329 329 328 330 330 329 329
331 330 330 330 330 329 330 330 330 329 328 328 327 326 326 326 326 326 326 325 324 323 322 322 322 321 321 321 321 320 319 318 317 315 314 313 313 312 313 313 312 312 312 313 316 318 318 319 321 322 323 323 324 325 326 327 327 327 329 330 329 329
329 329 329 329 329 328 328 329 328 328 327 326 325 325 324 324 323 323 322 322 321 319 318 318 317 317 316 316 315 315 314 313 312 312 312 312 311 311 311 312 311 311 312 312 313 314 313 315 317 318 318 319 320 321 322 323 324 326 327 328 328 327
328 328 329 328 328 327 327 326 325 325 325 324 324 323 322 322 321 320 319 318 317 316 314 314 314 313 313 312 312 311 311 311 311 311 311 311 311 311 311 311 311 311 311 311 311 312 311 312 314 314 314 316 317 318 319 320 321 322 323 324 325 326
326 327 327 327 326 325 325 324 324 323 322 322 322 321 320 319 318 317 316 315 315 313 312 312 312 311 311 311 311 311 310 310 310 310 310 310 310 310 310 310 310 310 310 310 310 311 311 311 312 312 312 313 314 315 316 318 319 320 320 321 322 323
324 324 325 326 325 324 323 322 321 321 320 320 319 317 317 316 315 314 313 313 313 312 311 311 310 310 310 310 310 310 310 309 309 309 309 308 308 308 308 308 308 307 308 308 308 309 309 310 310 311 311 311 312 312 313 314 315 317 318 319 320 320
322 322 323 323 323 322 321 320 320 319 318 317 316 314 314 313 312 312 311 311 311 310 310 310 310 310 310 309 309 308 308 307 307 306 306 305 305 305 305 305 305 305 305 305 305 305 306 307 307 308 309 310 310 311 312 312 313 314 315 316 317 318
321 321 321 321 321 320 319 319 318 317 315 314 313 312 312 312 311 311 310 310 310 310 310 309 309 309 308 308 307 306 305 305 304 303 302 302 302 301 301 301 301 301 301 301 302 302 302 303 303 305 305 306 307 309 310 311 311 312 312 313 314 315
319 319 319 319 319 319 318 317 317 315 313 312 311 311 311 311 310 310 310 310 309 309 308 308 307 307 306 305 304 303 302 301 301 300 299 299 299 299 298 298 298 298 298 298 298 299 299 299 300 301 303 304 307 308 308 309 310 310 310 311 312 313
317 317 317 317 317 316 315 315 314 313 311 311 310 310 310 310 310 309 309 309 308 307 307 306 305 304 303 302 301 300 299 298 298 297 297 297 297 297 297 297 297 297 297 297 297 297 297 297 297 298 300 302 305 307 307 307 308 309 309 310 311 312

ECMWFFLT2_850_thetae_102.txt.gz
Theta_e
337 336 335 332 325 317 313 320 326 327 329 331 330 327 327 327 325 323 326 332 333 330 329 332 332 326 321 321 319 317 316 315 313 312 311 309 308 308 311 316 319 320 320 320 319 318 318 318 318 317 317 316 314 316 320 322 327 332 332 332 331 327
339 339 337 334 329 320 313 319 326 328 331 330 328 329 331 333 329 324 330 336 331 329 332 327 323 325 324 320 318 316 316 317 316 315 314 312 310 309 308 310 314 317 318 318 319 321 322 321 320 319 318 317 317 318 320 323 327 332 332 330 330 331
341 341 339 336 328 319 314 321 328 330 331 328 330 333 335 337 336 332 333 330 325 330 333 326 322 327 326 323 325 323 320 319 319 318 316 315 314 312 311 309 308 312 314 317 323 326 326 327 326 324 322 321 321 322 326 330 328 327 331 331 331 333
341 341 339 336 328 319 318 324 329 330 329 328 333 337 337 338 338 334 328 324 327 331 331 329 331 332 331 331 332 332 330 326 323 322 320 322 323 318 320 319 313 311 310 316 327 330 331 333 332 330 328 326 325 327 332 335 331 329 331 332 332 332
340 339 338 334 330 324 324 330 331 331 330 329 334 337 336 336 335 328 321 326 332 333 333 334 335 335 335 333 334 334 333 332 328 327 326 328 330 324 327 330 324 319 316 321 331 333 334 335 335 333 332 330 328 331 336 335 332 332 332 331 332 332
339 337 336 334 333 330 331 334 333 333 332 331 335 335 336 336 329 320 323 332 335 334 335 335 334 335 334 331 334 335 333 334 332 332 331 331 332 330 330 334 332 329 326 327 332 333 333 333 333 333 333 333 332 333 334 333 332 333 332 332 333 333
338 336 335 334 333 333 335 336 333 334 334 334 336 335 337 334 322 322 331 335 335 334 335 335 334 335 334 332 334 335 334 334 333 335 335 333 334 332 331 333 333 333 331 329 330 332 332 332 331 331 332 333 333 333 333 333 333 332 332 333 333 334
336 334 335 334 332 333 336 335 334 336 335 334 335 335 337 332 325 331 335 334 334 335 335 335 334 335 336 335 334 334 333 332 333 335 335 334 335 334 333 333 333 333 333 331 331 331 332 332 332 332 333 332 331 331 331 332 333 332 332 333 333 333
335 335 334 334 333 334 335 335 335 336 335 333 334 336 337 335 334 336 335 335 335 334 335 336 335 335 334 334 333 332 332 332 333 333 334 335 335 335 335 334 334 333 332 333 332 332 332 333 333 333 333 333 332 331 330 331 332 332 332 332 333 332
335 334 332 334 335 335 335 335 335 336 334 333 337 338 337 338 337 336 335 335 335 334 335 335 335 335 334 335 334 333 334 334 333 332 333 334 334 334 335 334 335 334 333 333 333 332 333 333 334 334 333 334 333 333 333 333 333 333 333 333 333 332
335 333 332 336 336 335 335 336 335 335 336 337 338 338 338 338 336 336 335 335 335 334 335 335 335 335 336 337 335 333 334 334 334 332 331 333 333 333 334 334 334 334 334 333 332 332 333 332 333 333 333 333 332 332 332 333 333 333 333 334 333 332
335 334 336 337 336 336 338 338 336 336 338 339 337 337 338 337 336 337 335 335 335 334 335 335 334 335 336 337 334 334 333 333 335 333 332 332 331 331 332 333 334 334 334 333 333 333 333 332 333 333 333 333 332 331 332 333 332 332 333 333 333 333
335 335 338 338 337 339 339 338 337 337 339 338 337 338 338 337 337 336 336 337 336 335 334 333 334 335 335 336 334 334 335 335 335 333 332 332 332 333 333 334 335 334 335 335 335 335 334 334 335 335 335 335 333 332 332 333 332 333 333 333 334 334
336 337 338 339 339 339 339 338 338 338 338 337 337 338 337 336 337 336 336 337 336 335 334 333 333 332 332 334 334 334 335 336 335 334 335 334 334 335 335 335 335 335 336 336 335 335 336 336 336 335 335 335 334 334 333 332 332 333 333 333 334 335
336 337 338 338 339 338 339 339 339 339 337 337 337 337 337 337 337 336 336 336 335 335 335 335 334 333 332 334 334 334 334 334 334 334 335 334 334 334 334 334 334 334 334 333 333 334 335 335 335 334 334 333 333 334 333 332 332 332 333 333 333 334
335 336 335 336 338 338 337 337 338 338 337 338 337 337 338 337 337 337 336 336 336 336 336 335 335 335 335 335 335 334 334 334 333 333 333 332 332 332 331 332 333 333 332 332 332 333 335 335 334 333 333 332 331 331 331 331 331 332 333 333 332 333
335 335 335 337 338 338 337 336 336 336 337 338 338 338 338 337 338 337 336 336 336 336 336 336 336 335 334 334 333 333 333 333 333 333 333 332 332 332 331 331 332 333 333 333 333 333 334 334 334 333 331 330 329 329 330 330 330 331 332 333 333 333
335 335 336 337 336 336 337 334 333 335 336 336 337 337 337 337 338 337 337 337 336 336 336 336 336 334 334 334 334 334 334 333 334 334 333 334 333 333 332 331 331 332 333 333 332 333 333 333 333 332 329 328 329 330 330 330 331 332 332 334 333 333
335 336 336 336 336 336 334 332 332 334 333 333 335 337 337 337 337 337 337 337 336 337 336 336 336 335 334 334 334 335 334 334 334 334 334 333 333 333 332 331 331 331 332 332 332 333 333 333 332 330 329 329 330 330 330 331 331 332 333 333 333 332
335 335 335 335 335 334 332 332 331 331 332 334 336 336 337 338 337 337 337 337 337 336 336 336 335 335 335 335 335 334 334 334 333 333 333 332 332 332 331 331 331 331 331 331 332 333 333 332 330 329 330 330 330 330 330 331 332 332 333 332 331 331
334 334 334 333 333 333 333 331 330 333 335 336 336 337 338 337 337 337 336 336 336 336 335 335 334 334 335 334 334 334 334 333 332 332 333 331 332 332 331 331 331 331 331 330 330 331 332 331 330 330 329 327 327 329 330 331 331 332 333 332 330 331
333 333 335 333 332 335 335 330 329 333 336 336 337 338 337 337 336 335 334 335 335 334 334 333 333 333 334 333 333 333 333 332 332 332 332 332 332 332 331 331 331 330 330 329 330 331 331 330 330 331 330 327 327 328 329 331 332 332 332 331 330 332
332 332 334 334 333 334 334 331 330 331 333 336 337 336 336 335 334 333 332 332 333 333 332 332 332 333 333 332 332 332 332 332 331 331 331 331 331 330 330 330 330 329 327 326 327 328 328 329 329 330 329 329 329 328 330 332 332 330 329 331 332 332
333 332 332 331 330 331 332 332 331 331 333 336 335 334 334 333 332 331 330 330 330 330 330 330 330 331 332 331 331 331 331 331 330 330 329 328 327 325 326 328 328 325 321 319 319 320 323 326 327 328 328 328 328 329 331 331 329 324 324 330 331 329
332 333 332 330 329 328 330 331 331 332 332 333 332 332 332 332 331 330 329 329 327 326 327 328 328 328 329 329 329 329 329 328 326 324 323 321 319 317 320 322 320 317 315 315 315 316 319 321 322 326 327 326 326 327 328 326 325 323 321 324 325 323
330 332 333 332 331 330 329 330 331 332 332 332 332 333 333 332 331 330 328 327 326 326 326 325 325 324 325 324 323 322 322 320 318 317 316 315 313 312 314 314 313 313 312 312 313 314 316 316 318 322 324 324 324 324 324 324 324 324 321 319 320 320
331 332 333 332 330 329 329 331 333 334 334 334 333 333 332 331 331 329 327 325 325 325 325 324 323 321 320 319 317 315 314 314 313 312 313 312 311 311 311 311 310 311 310 310 311 311 311 311 312 315 316 316 318 319 321 322 323 323 322 319 318 318
332 331 331 331 329 329 332 333 334 334 334 333 333 332 330 330 329 327 325 325 324 323 323 322 320 317 316 314 313 312 311 311 311 311 311 310 310 310 310 310 310 309 309 309 309 309 309 309 309 309 309 310 311 313 317 319 320 320 320 320 317 315
333 332 331 331 331 332 333 333 333 333 332 332 331 330 329 328 327 326 325 324 323 320 318 317 315 313 312 311 311 311 310 310 310 310 310 309 309 309 309 308 308 307 307 306 306 306 306 306 306 306 307 307 308 309 309 313 315 315 315 316 317 316
333 332 332 332 332 331 331 332 331 331 330 329 328 328 327 326 324 324 323 321 320 317 314 313 312 311 311 310 310 310 309 309 309 309 308 307 307 307 306 305 304 304 303 302 303 302 302 302 302 303 304 305 307 309 310 310 311 311 312 313 314 314
332 332 331 331 330 329 329 330 330 329 328 327 327 326 325 324 323 322 321 319 317 314 312 311 310 311 310 309 309 308 308 307 306 306 305 305 304 303 302 301 300 300 299 300 299 299 299 299 299 299 301 305 308 310 312 311 311 311 311 312 312 312
331 330 330 329 328 327 327 327 327 327 326 326 325 324 323 323 322 321 319 318 315 311 310 311 309 309 308 308 307 306 305 304 303 302 301 301 300 300 299 298 299 299 298 299 298 298 298 297 298 300 302 307 310 311 312 311 310 311 311 311 311 311
329 328 327 327 326 325 325 325 325 324 324 324 323 322 322 321 320 319 318 317 314 310 309 309 308 307 306 305 304 303 302 300 300 299 299 299 298 298 298 297 298 297 298 298 297 300 300 298 300 302 304 308 310 311 310 307 308 311 310 310 310 310
327 325 325 325 324 323 323 323 322 322 321 321 321 320 320 319 318 318 317 315 312 309 308 307 306 305 303 302 300 299 299 298 298 298 298 298 297 298 297 297 297 297 297 297 296 299 299 299 301 302 303 306 310 311 305 302 306 308 307 308 308 309
324 323 323 323 322 321 321 321 320 320 319 319 318 318 317 317 316 316 315 313 310 307 306 304 303 301 300 299 298 298 297 297 298 297 297 297 297 297 297 297 297 296 298 297 296 296 297 299 301 301 302 304 309 308 301 301 306 305 304 306 307 307
322 322 321 321 320 319 319 319 319 318 318 317 317 316 315 315 315 314 313 311 307 305 303 301 300 298 298 298 297 297 297 297 297 297 297 297 297 297 296 296 296 296 298 299 299 297 297 299 300 303 305 304 304 304 300 303 307 305 306 307 306 306
321 320 320 319 319 318 318 317 317 317 316 315 315 314 314 313 313 312 310 307 303 302 300 299 298 297 297 297 296 296 296 296 296 296 297 296 296 296 296 296 296 297 300 302 303 301 298 299 299 302 307 304 299 299 300 304 305 304 306 305 302 303

ECMWFFLT2_850_thetae_105.txt.gz
Theta_e
327 322 316 315 318 322 328 328 326 327 328 328 327 323 320 319 321 323 327 330 329 327 326 328 327 322 319 317 315 314 314 314 313 312 310 309 308 311 315 318 318 317 317 316 316 316 315 315 316 316 315 316 315 317 320 323 326 330 331 331 331 330
330 326 319 316 317 319 324 325 326 328 327 325 323 321 321 320 322 326 329 329 327 323 319 319 322 322 320 318 317 316 315 315 315 315 314 312 310 309 310 313 316 317 318 317 316 318 321 321 321 322 321 321 320 319 319 321 325 329 331 331 331 331
333 331 326 320 316 315 318 322 325 327 326 325 326 327 329 328 328 331 330 323 321 321 319 320 323 324 324 326 327 326 322 319 317 316 316 317 317 315 313 311 312 313 313 316 319 323 327 328 328 329 330 329 327 326 327 327 325 326 330 331 331 332
337 336 332 324 317 315 316 321 326 327 326 329 331 332 336 336 333 331 325 319 320 325 325 327 331 331 331 332 332 332 330 327 323 319 319 319 320 323 324 323 321 316 312 316 326 329 329 330 330 332 333 332 331 331 331 331 328 327 331 332 332 333
339 338 333 325 318 316 318 324 328 326 327 333 335 334 337 336 332 325 320 322 327 331 331 332 334 333 334 333 331 333 332 331 330 328 326 323 321 325 329 331 331 329 323 323 328 330 330 330 329 331 332 330 331 333 332 333 332 331 332 333 333 333
339 336 333 325 318 317 321 327 329 328 329 334 335 335 335 334 330 322 321 328 333 334 334 334 334 334 334 332 331 333 332 332 332 332 331 330 328 326 329 332 332 333 333 330 329 329 331 332 330 330 330 328 330 331 332 333 334 334 333 333 333 333
337 334 333 328 323 323 325 327 327 328 330 332 333 334 334 333 329 323 326 332 333 334 334 335 334 334 334 333 332 332 331 332 332 332 332 333 333 330 330 332 332 333 333 332 330 329 330 331 331 332 331 331 331 331 331 332 333 333 333 332 333 332
336 334 333 331 331 332 332 331 330 331 332 334 335 335 334 332 327 326 331 334 333 335 335 335 335 334 334 334 333 332 331 332 332 333 332 334 334 333 333 333 333 333 332 332 332 332 331 331 332 332 332 333 332 332 332 332 332 332 331 331 332 332
336 336 334 333 334 336 336 335 335 335 335 335 336 336 335 332 330 331 334 334 334 335 334 334 334 334 334 334 333 332 332 333 333 332 332 334 334 334 334 333 333 333 333 332 333 333 332 331 332 332 333 333 333 333 333 333 332 332 332 332 332 333
335 336 334 334 335 336 336 335 335 335 336 335 335 336 335 334 335 335 335 335 334 333 334 334 334 334 334 335 335 334 333 333 333 332 333 334 334 333 333 333 334 334 333 333 333 333 332 332 332 333 333 333 333 333 333 332 332 332 332 333 333 333
334 335 334 334 336 335 334 333 332 333 332 332 333 336 336 336 338 336 335 335 334 333 334 334 334 334 336 336 335 335 334 333 333 333 332 333 332 332 332 333 334 334 333 333 334 334 333 333 332 332 333 333 333 332 333 332 331 332 333 332 332 332
334 334 334 335 336 334 332 332 331 331 330 330 333 336 337 337 337 336 336 335 334 334 334 334 334 335 336 335 333 333 333 333 333 333 332 332 332 332 332 333 333 333 333 333 333 334 334 333 332 332 333 333 333 333 334 333 332 333 333 333 333 333
332 331 333 334 332 331 332 333 333 334 333 333 334 335 336 337 336 336 336 335 335 334 333 333 333 334 335 334 333 333 333 332 332 332 332 332 332 332 332 333 333 333 333 333 333 334 333 333 333 333 333 333 333 333 333 333 332 332 333 333 333 332
330 332 333 333 332 333 334 334 334 334 333 333 334 333 333 335 336 336 336 336 335 334 333 333 332 332 333 333 332 332 332 332 332 332 333 333 332 332 332 332 332 332 333 333 332 332 332 332 332 333 333 333 332 332 331 331 330 330 330 331 331 331
332 334 334 335 335 336 336 336 335 333 332 333 335 334 332 332 333 335 336 336 335 335 335 334 333 332 332 332 333 332 332 332 332 333 332 332 332 332 331 331 331 332 332 331 331 331 332 333 333 333 332 332 331 330 328 328 328 329 329 330 331 331
334 335 335 336 336 336 337 336 335 334 334 334 335 334 333 334 333 333 333 335 336 335 335 335 335 334 334 334 333 333 332 332 332 332 331 331 330 330 330 330 330 330 330 330 331 331 332 333 333 332 331 330 328 327 326 328 329 329 330 331 331 332
335 336 337 337 336 336 336 335 334 334 335 335 334 332 333 333 333 332 331 333 336 336 336 336 335 334 335 333 332 333 332 332 333 332 332 332 331 331 331 330 330 330 330 330 331 331 331 331 330 329 329 328 326 326 327 328 329 330 331 331 332 332
336 336 336 336 336 336 335 335 333 333 334 334 331 330 331 331 332 333 332 333 336 336 336 336 334 333 333 332 333 334 333 333 333 333 332 332 332 332 331 331 330 330 330 330 331 331 330 329 328 328 327 326 324 325 327 329 330 331 332 332 332 331
336 335 335 336 335 334 333 334 333 332 332 330 328 329 330 329 331 333 333 335 336 335 335 335 334 333 333 333 334 334 333 333 333 332 332 332 331 331 330 330 330 330 330 331 331 331 330 329 327 327 326 324 325 326 327 330 331 331 332 333 333 332
335 335 335 335 334 332 330 332 331 329 329 329 330 331 332 331 330 331 334 336 335 334 335 335 335 334 333 333 333 334 334 333 333 332 331 331 330 330 329 330 330 330 330 330 331 330 329 327 325 324 324 324 325 325 328 330 331 333 333 333 332 332
335 335 334 332 331 330 329 329 327 326 329 331 330 329 330 330 330 332 335 336 335 335 335 335 335 334 334 334 333 333 333 333 332 331 331 330 330 330 330 330 330 330 330 329 329 328 327 326 324 321 320 321 322 324 329 331 331 333 332 331 331 331
335 334 332 330 329 330 329 328 328 329 330 330 328 326 327 330 332 334 335 335 335 335 334 334 334 333 334 334 333 332 332 333 332 331 331 330 330 330 330 329 328 329 329 327 326 325 324 322 321 320 318 316 316 321 328 332 333 333 328 328 331 330
333 332 330 331 331 330 327 328 332 331 330 330 329 329 330 332 335 335 334 333 333 333 333 333 333 333 333 333 333 332 332 331 331 331 330 329 328 327 327 326 324 324 323 321 321 320 320 319 319 319 318 318 318 319 321 325 330 330 324 323 327 328
333 330 328 331 333 330 327 329 331 330 332 332 331 332 333 334 334 334 333 331 330 330 331 330 330 331 331 332 332 331 330 330 330 328 326 324 322 320 319 319 318 317 314 314 314 314 316 317 317 317 317 318 320 322 321 319 319 320 319 318 320 322
333 330 329 331 333 330 328 328 329 330 332 333 332 333 332 332 332 331 331 330 329 329 327 327 328 328 328 329 329 329 329 328 326 323 320 317 315 314 314 313 313 312 312 312 311 311 312 313 316 318 318 318 319 320 320 319 317 315 316 315 316 316
332 330 330 330 329 330 330 329 330 331 332 331 331 331 330 331 331 331 329 328 327 327 326 325 325 325 325 325 325 324 323 321 318 315 314 313 312 311 311 311 311 310 310 310 309 309 309 309 311 313 316 317 318 318 318 318 317 315 313 312 312 311
331 329 328 327 326 329 330 331 332 331 331 331 331 331 331 331 331 330 328 327 326 325 325 324 323 322 322 321 319 317 316 314 312 312 311 311 310 310 310 310 310 309 309 309 308 307 306 306 306 306 310 313 314 314 315 315 312 311 311 308 307 306
331 330 330 329 329 330 331 332 333 332 332 332 332 332 331 331 330 329 328 327 325 324 324 322 320 319 317 315 314 312 312 311 311 311 310 310 309 309 309 309 308 307 306 305 304 303 302 302 302 302 304 306 307 308 310 309 307 307 308 306 303 303
333 333 332 331 332 333 333 334 334 334 333 333 332 332 331 330 329 328 327 327 324 321 320 319 316 315 313 312 312 311 311 310 310 309 309 309 308 308 307 306 304 303 302 302 301 301 300 300 300 301 303 306 308 309 309 306 305 308 309 308 307 305
334 333 333 333 333 333 333 333 334 333 333 333 332 331 330 329 327 327 325 325 322 317 315 314 312 312 311 311 310 310 310 309 309 308 307 307 306 305 304 302 301 300 300 300 300 299 299 299 299 301 305 308 309 310 309 306 306 309 309 308 307 304
333 333 333 333 332 332 331 331 331 331 331 330 330 329 328 327 326 325 323 321 318 314 312 312 311 310 310 310 309 309 308 308 307 305 304 303 302 302 301 300 300 299 299 299 299 299 298 299 299 302 306 308 309 310 308 305 305 306 307 304 304 303
332 332 332 331 330 330 329 329 329 329 329 328 328 327 326 324 323 322 321 318 314 312 311 311 310 309 308 308 307 307 306 305 303 302 301 300 300 300 299 299 299 299 299 299 299 298 298 298 298 302 306 307 307 306 303 302 303 304 305 304 303 302
331 331 330 329 329 329 328 328 328 328 327 326 326 325 324 323 321 321 320 316 311 310 310 309 308 307 306 306 305 304 303 301 300 300 299 299 299 299 298 298 298 298 298 298 298 298 298 298 298 301 305 305 303 300 301 303 304 305 305 303 301 300
331 330 330 329 329 329 328 328 327 326 326 325 324 323 322 322 321 320 319 316 311 309 309 308 307 306 304 303 302 300 300 300 299 299 299 299 299 298 298 298 298 298 297 297 297 297 297 298 299 300 300 299 298 299 302 303 303 304 303 300 299 300
330 329 329 330 329 329 328 327 326 325 324 324 323 323 322 321 320 319 319 316 310 308 307 305 304 303 301 300 299 299 299 299 299 299 298 298 298 298 297 297 297 297 297 297 297 297 297 298 301 299 297 296 297 300 302 300 300 301 299 297 297 299
330 329 329 329 329 328 327 326 325 324 323 322 322 321 321 320 319 319 317 313 308 306 305 302 301 300 299 299 299 299 299 299 298 298 298 298 297 297 297 297 298 299 299 298 296 296 297 298 301 302 299 297 296 298 299 297 297 298 297 297 296 297
329 329 329 328 327 326 326 325 324 322 321 321 320 320 319 318 317 316 313 309 306 304 301 300 299 298 298 298 298 298 298 298 298 298 298 297 297 297 297 298 299 299 299 299 297 296 296 298 303 304 301 297 296 296 297 296 296 296 296 296 296 296

ECMWFFLT2_850_thetae_111.txt.gz
Theta_e
317 319 323 324 325 327 329 329 328 327 327 326 327 326 322 318 318 317 318 320 323 325 324 320 317 317 317 317 315 313 312 309 308 308 309 311 314 318 318 318 317 317 316 315 314 314 315 316 318 323 326 326 325 325 327 328 326 325 328 330 330 331
315 318 320 321 323 326 328 328 326 324 324 325 325 322 319 318 318 318 321 322 322 323 323 321 322 325 326 326 322 318 315 312 310 309 308 309 311 314 317 318 319 318 318 318 317 317 316 317 321 325 327 328 328 328 328 330 330 330 330 330 330 330
314 315 316 317 322 326 327 326 323 322 323 323 322 321 320 320 320 322 321 321 319 320 323 323 328 332 332 332 330 325 322 318 315 313 310 309 309 310 312 314 315 317 321 324 324 325 325 327 330 331 330 330 330 329 330 331 331 332 331 331 331 331
314 314 314 316 320 323 324 323 322 322 322 322 321 321 320 320 325 324 320 321 323 326 329 330 333 335 334 332 333 332 330 326 322 320 316 313 313 314 313 313 312 317 326 330 329 330 330 331 331 330 330 330 330 330 331 331 331 331 332 332 332 332
318 317 315 316 318 318 321 322 322 322 322 321 320 320 321 325 328 322 321 327 330 331 333 333 333 334 333 332 333 333 333 331 329 326 323 320 320 322 322 320 319 321 328 329 329 330 330 330 329 329 330 330 332 332 332 332 332 332 332 332 332 332
323 321 318 317 317 317 320 322 322 322 322 322 322 324 328 331 327 318 323 331 331 332 334 333 333 333 333 333 333 333 333 332 332 331 328 325 325 326 328 328 327 327 328 329 328 328 328 329 329 329 330 331 332 332 332 332 332 332 332 333 333 332
326 324 322 320 317 317 320 322 322 322 324 326 328 331 333 331 324 319 327 332 331 332 333 333 333 333 334 334 334 332 332 332 332 333 332 330 328 328 330 331 331 331 330 330 330 329 329 329 329 330 331 331 332 332 332 332 332 332 332 333 332 332
330 327 324 322 318 317 319 321 322 325 329 331 331 333 332 327 321 323 330 332 332 333 333 334 334 334 334 334 334 331 331 331 332 332 331 332 331 330 332 332 332 332 332 331 331 331 331 331 331 331 332 332 332 332 332 332 333 333 333 332 332 332
333 330 327 323 319 317 320 322 324 330 333 331 331 332 330 323 320 328 334 333 333 334 334 334 334 334 334 334 334 332 331 331 331 330 330 332 333 332 333 332 332 332 332 332 332 331 331 332 332 332 332 332 332 332 332 332 333 333 333 332 332 332
333 331 327 321 319 318 321 324 327 331 332 330 330 330 326 321 323 331 334 333 334 334 334 334 334 333 333 334 334 333 332 332 332 331 331 332 333 333 333 332 332 332 333 333 333 332 332 332 332 332 332 332 332 332 332 332 332 332 332 332 333 332
330 328 324 320 320 320 324 326 327 330 330 327 328 326 323 324 329 334 335 334 334 333 333 333 333 333 333 333 333 333 333 332 333 333 331 331 332 332 331 331 331 332 332 332 332 332 331 332 332 332 332 332 332 331 331 332 332 332 332 331 331 330
329 325 321 320 321 322 325 327 327 327 327 325 326 326 327 330 333 335 336 335 334 334 333 333 333 333 333 332 331 332 331 331 333 333 332 331 331 331 330 330 330 331 332 332 331 331 331 331 331 331 331 331 330 330 331 331 331 331 330 329 328 328
330 325 322 322 324 324 326 327 327 326 326 325 327 329 331 333 334 335 336 335 334 334 333 332 333 334 333 331 330 330 331 331 332 332 331 331 331 330 330 330 331 331 331 331 331 330 330 329 329 328 328 329 329 329 329 329 329 328 327 327 327 328
331 329 327 326 326 326 327 327 328 328 328 328 329 331 332 334 335 335 335 334 333 333 333 332 333 334 332 331 331 330 330 330 330 330 330 331 331 331 330 330 330 330 330 330 329 328 327 326 326 327 328 328 328 328 327 327 326 325 326 328 329 329
332 331 330 329 329 328 328 329 329 330 330 331 331 331 332 334 335 335 334 333 333 332 332 332 332 332 332 332 331 330 330 330 330 331 331 331 331 330 330 329 329 329 328 327 327 326 325 326 326 326 327 327 327 326 325 324 324 325 328 330 330 330
334 332 331 329 330 330 330 331 332 332 332 333 333 331 333 335 335 333 332 332 333 333 333 333 331 330 330 331 330 331 331 331 331 331 331 330 330 329 329 329 328 328 327 327 326 326 326 326 326 326 327 326 325 325 324 323 324 326 329 330 331 331
334 333 331 330 331 331 333 333 333 334 333 334 333 333 334 335 333 332 332 333 334 334 334 334 333 331 331 330 331 331 331 331 331 330 329 329 329 329 329 329 328 327 327 326 325 325 325 325 325 326 326 325 325 324 324 324 325 327 329 330 331 331
334 333 332 332 332 333 334 334 334 334 334 334 334 334 335 334 333 332 332 333 333 333 334 334 334 332 332 331 331 331 330 331 330 329 329 329 329 329 329 328 328 327 326 325 325 324 323 322 322 322 324 324 324 324 324 324 325 327 329 330 330 331
335 335 334 333 333 334 335 335 335 334 334 335 336 335 334 334 333 332 332 332 332 332 334 334 333 332 331 331 331 331 331 331 331 330 330 329 330 329 329 328 328 327 326 326 325 323 321 320 319 320 320 320 322 323 324 325 326 327 328 329 330 330
335 335 334 334 334 334 335 335 335 335 335 336 335 334 333 333 333 332 332 331 332 333 334 334 333 332 331 331 331 331 332 331 331 331 330 330 330 329 328 327 326 326 325 324 323 322 321 320 318 316 316 317 320 321 323 325 327 327 327 328 328 328
335 335 333 334 334 334 334 335 336 336 335 335 335 334 334 334 333 333 332 332 333 334 334 334 333 332 332 331 331 330 330 330 331 330 330 329 327 327 326 324 323 322 322 321 320 320 318 317 314 313 313 314 316 318 321 324 326 327 327 326 326 325
334 333 333 334 335 334 335 336 336 335 335 335 334 334 334 334 333 333 332 333 334 334 333 333 333 333 332 332 331 331 330 330 330 330 329 328 327 326 323 321 320 319 318 317 316 315 314 313 313 312 312 312 313 315 318 324 326 327 328 326 323 320
332 332 333 335 336 336 336 337 336 335 334 334 334 334 334 333 333 332 333 334 334 334 334 334 333 333 332 331 331 331 331 330 330 330 329 328 326 323 320 318 317 315 314 313 313 313 313 312 312 312 312 311 312 313 317 323 322 320 321 320 315 312
333 335 336 337 337 337 337 336 336 335 335 333 333 333 333 332 333 333 333 334 334 334 334 333 332 332 330 330 330 330 330 329 329 328 327 325 322 319 317 315 314 313 312 312 312 312 312 311 310 310 308 308 309 310 313 315 312 311 311 309 306 304
336 337 337 337 336 336 336 336 336 336 335 333 332 332 332 333 332 333 333 334 334 334 332 331 331 330 328 328 327 327 326 326 326 324 322 320 317 316 314 313 312 312 311 311 311 310 309 308 306 305 304 304 306 307 307 305 304 307 306 303 302 301
336 336 337 336 336 336 335 335 334 334 334 332 331 331 332 333 332 333 334 334 333 332 330 329 328 328 327 326 325 324 324 324 322 320 318 316 314 313 312 312 311 311 311 310 308 306 304 303 303 302 302 302 303 303 303 302 302 303 303 302 301 299
336 336 336 336 335 335 335 334 333 332 331 331 330 330 331 332 333 333 333 332 330 329 328 326 326 326 325 324 323 323 322 320 318 316 314 313 312 311 311 310 310 309 307 305 303 302 302 302 302 302 302 302 301 302 302 302 300 299 300 301 300 299
336 336 335 335 334 334 334 333 332 331 331 331 331 330 330 332 333 332 331 330 329 328 327 325 325 324 323 322 321 320 318 316 314 313 312 311 311 310 309 308 306 304 302 302 301 301 301 301 301 301 301 302 301 301 301 300 299 299 299 300 300 300
335 335 334 334 334 334 334 333 332 332 332 332 332 332 332 332 332 331 330 329 328 327 326 325 324 323 321 319 317 316 314 313 312 312 311 310 309 308 306 304 302 301 301 301 301 301 300 300 300 300 300 300 299 300 299 298 299 299 298 299 299 300
335 335 333 333 334 334 334 334 333 333 333 333 332 332 331 331 331 330 330 328 327 326 324 323 322 320 318 316 314 313 312 311 311 310 310 308 306 304 302 301 301 301 301 301 301 300 300 299 299 298 298 298 298 298 299 299 298 298 298 298 298 298
335 334 333 334 334 334 333 333 333 334 333 332 331 331 330 331 330 330 329 327 325 324 322 320 318 316 315 313 312 311 311 310 310 309 307 305 303 301 300 300 300 300 300 300 300 299 299 298 298 297 297 297 297 297 298 298 297 297 297 297 297 297
335 335 334 334 334 333 333 333 333 333 333 331 331 331 331 331 330 328 326 325 324 322 319 317 315 314 313 311 311 310 310 309 308 306 304 301 300 300 300 300 300 300 300 299 299 298 298 297 297 297 297 296 296 296 297 297 296 296 296 296 296 296
335 334 334 334 334 334 333 333 333 333 332 332 332 332 331 330 328 326 325 323 322 320 316 314 313 312 311 310 310 309 308 306 305 303 301 300 300 299 299 299 299 299 299 298 298 298 298 297 296 297 296 296 296 296 296 296 296 296 296 296 296 296
334 333 333 333 334 334 333 333 332 332 332 332 332 331 330 328 326 324 323 321 318 315 313 312 312 311 310 309 308 307 306 303 301 300 299 299 299 299 299 299 299 299 299 298 298 298 298 297 296 296 296 296 296 296 296 296 295 295 296 296 296 296
333 333 332 332 333 332 332 332 332 332 332 331 330 329 327 326 324 323 321 318 314 312 311 311 311 310 309 308 306 305 303 300 299 299 299 299 299 299 299 298 299 298 298 298 298 298 298 297 296 296 296 296 296 296 296 295 295 295 295 296 296 295
332 331 331 331 331 332 331 331 332 331 330 330 329 327 326 324 323 322 321 317 312 310 310 310 310 309 307 306 304 302 300 299 299 298 299 299 298 298 298 298 298 298 298 297 297 297 297 296 296 296 296 296 295 295 295 295 295 295 295 295 295 295
331 330 330 331 331 332 331 331 331 330 329 328 327 325 324 324 322 321 321 319 314 310 309 309 308 307 305 303 302 300 299 299 298 298 298 298 298 298 298 298 298 298 297 297 296 296 297 296 296 295 295 295 295 295 295 295 295 295 295 295 295 295

ECMWFFLT2_850_thetae_114.txt.gz
Theta_e
317 318 318 319 322 324 328 328 326 324 325 324 321 320 319 319 318 317 320 322 322 320 316 315 315 315 315 314 314 312 310 309 308 308 312 315 316 316 314 314 313 313 312 313 315 317 321 325 327 327 327 328 327 326 325 326 328 330 330 330 330 331
318 319 319 322 324 325 327 327 325 325 325 322 320 319 317 317 316 318 322 323 324 323 319 319 320 320 321 319 318 316 313 312 310 308 308 311 315 317 317 317 316 316 315 314 314 315 317 320 322 323 324 325 325 326 327 328 331 332 332 332 331 332
319 319 321 324 326 326 325 324 325 325 324 322 319 317 315 315 317 322 323 320 321 322 322 326 329 330 329 328 325 322 319 316 314 312 309 308 310 314 316 317 318 317 317 316 316 316 316 318 322 324 325 326 327 328 329 329 330 331 332 332 331 332
317 318 321 324 325 326 324 323 325 324 324 321 318 316 313 316 321 322 321 320 323 325 326 330 334 334 332 330 330 329 327 323 320 318 314 310 309 310 312 313 315 316 317 318 320 321 321 324 328 329 329 329 329 329 329 329 330 331 331 331 331 332
316 317 319 321 321 322 323 323 323 322 322 320 318 315 313 320 322 320 322 326 329 331 331 332 334 334 331 330 331 332 332 330 327 324 320 316 315 315 313 312 312 314 318 321 324 326 327 328 330 330 329 329 330 331 331 330 331 331 331 332 332 332
315 317 318 318 318 320 321 321 320 319 320 319 317 315 317 324 321 321 328 331 332 333 333 333 332 332 331 331 332 331 332 332 331 330 326 323 322 323 322 318 316 316 318 322 325 326 327 328 328 328 328 329 330 331 331 331 332 332 332 332 332 332
317 317 317 318 318 319 320 321 320 319 320 318 317 319 325 328 320 321 330 332 332 333 333 333 333 333 332 332 332 331 331 332 331 332 331 328 327 327 328 327 325 324 323 325 326 327 328 328 328 329 329 330 330 331 331 331 332 332 332 332 332 332
319 317 318 319 320 320 321 323 322 321 320 318 322 328 331 328 320 320 330 332 332 333 333 333 333 333 332 332 332 330 330 331 331 332 331 331 331 329 330 330 330 330 330 330 330 330 330 330 330 331 331 331 331 331 331 331 332 332 332 332 332 332
320 319 320 321 322 323 324 325 324 322 320 322 329 333 331 326 320 322 330 333 332 333 333 333 333 333 332 332 333 331 330 331 331 331 330 331 332 332 331 331 332 332 332 331 331 331 331 331 331 331 331 331 331 332 332 332 332 332 332 332 332 332
321 321 321 323 325 326 326 326 326 325 324 327 331 332 329 324 320 326 333 333 332 333 333 334 333 333 332 333 334 332 331 331 331 330 328 329 331 331 331 331 331 331 331 331 331 331 331 331 331 331 331 331 331 331 331 331 331 331 331 331 331 331
324 322 322 325 326 327 328 327 328 329 329 331 332 331 328 323 324 331 334 333 333 333 334 334 334 333 333 334 334 333 332 331 331 330 328 328 329 330 330 329 329 330 330 330 330 330 330 331 330 330 330 329 330 329 330 330 330 330 330 329 328 328
328 325 324 326 327 328 329 328 330 332 331 330 330 330 327 326 330 334 335 334 334 334 335 335 334 334 333 333 333 332 332 331 331 331 329 329 329 330 329 329 329 329 330 330 330 330 330 329 329 328 327 327 328 328 328 329 328 328 327 326 325 326
333 330 326 326 328 329 329 329 331 331 329 328 329 329 328 331 333 334 335 334 334 334 334 334 334 333 333 333 331 331 331 331 331 331 330 330 330 330 330 330 330 329 329 329 329 329 328 328 327 326 326 327 327 328 327 327 327 326 325 325 326 328
335 332 327 325 327 330 330 329 330 329 327 328 329 330 331 333 334 334 335 334 334 334 334 333 333 333 333 333 331 331 331 331 331 330 330 330 330 330 330 330 329 329 328 327 327 327 327 327 326 326 326 326 326 326 326 325 325 325 325 327 329 330
335 331 324 323 328 330 330 329 329 329 328 329 331 331 332 333 333 334 335 334 333 333 333 332 331 332 333 333 333 332 331 330 331 330 330 330 330 330 329 329 329 328 328 327 327 327 326 327 326 326 326 326 326 325 325 325 325 325 326 328 329 330
334 329 322 324 330 331 330 330 330 330 331 331 332 332 332 332 333 334 334 334 333 332 332 331 331 331 332 333 332 331 331 331 331 330 330 329 329 328 328 328 328 327 327 326 326 326 325 326 326 326 325 325 324 324 324 325 325 326 327 328 329 329
332 327 323 326 331 332 332 332 332 332 332 332 333 333 332 332 333 334 334 333 331 331 332 332 333 332 331 332 331 331 331 330 330 329 328 328 327 327 328 327 327 326 325 325 324 324 324 325 325 324 323 322 322 323 324 324 325 326 327 327 328 328
332 329 327 329 332 333 333 333 333 333 333 333 334 334 333 333 334 334 333 331 330 330 332 333 333 334 333 332 332 331 330 329 329 329 328 328 328 327 327 326 326 325 324 324 323 322 323 323 323 321 319 318 319 321 322 323 324 325 326 326 327 326
333 332 331 332 333 333 333 333 334 334 334 334 334 334 333 334 334 334 332 331 329 330 332 332 333 334 334 333 332 330 330 330 329 329 329 329 328 327 326 325 324 323 322 322 321 320 320 319 318 316 315 315 317 318 320 322 323 324 324 324 324 323
334 332 333 333 332 333 334 334 335 334 334 334 334 334 334 335 334 333 332 330 330 330 332 332 333 334 333 333 332 331 331 331 330 329 329 328 328 327 326 324 322 321 320 319 318 316 315 314 313 312 313 314 314 316 319 322 323 324 324 323 322 320
333 333 334 334 333 333 334 334 335 335 335 334 334 335 335 335 334 333 332 330 330 332 332 333 334 334 333 333 332 332 332 331 331 329 329 328 327 326 324 321 319 318 317 315 314 313 312 312 311 311 312 313 314 316 318 320 322 322 321 319 317 314
334 334 335 334 333 333 334 335 335 334 335 335 335 335 335 334 333 332 332 331 331 333 333 333 333 333 333 333 333 332 332 331 330 329 328 327 325 323 320 318 316 315 313 313 313 312 312 311 310 309 310 311 313 314 317 320 321 318 314 311 307 304
334 334 335 334 334 334 334 335 335 335 335 335 335 335 334 333 332 332 332 332 332 333 334 333 333 333 333 332 332 331 330 330 329 328 327 325 322 319 316 315 313 312 312 312 312 312 311 309 307 306 307 309 311 311 314 317 315 311 308 304 301 300
334 334 335 334 334 333 334 335 335 335 336 335 334 333 333 333 333 332 332 332 333 334 334 333 333 333 332 331 329 328 328 327 326 326 324 321 317 315 313 312 312 312 312 311 311 310 309 306 305 304 304 306 307 308 309 307 306 307 304 301 300 299
334 335 334 334 334 333 334 335 335 336 336 335 334 333 332 333 332 331 332 332 333 333 333 333 333 332 330 329 328 327 325 325 324 322 319 315 313 312 312 311 311 311 310 310 309 307 305 304 303 303 303 303 304 304 303 301 302 305 302 300 299 298
334 335 334 333 332 333 334 335 336 336 335 334 334 333 331 331 331 331 332 332 332 333 333 333 331 329 327 326 326 325 323 322 320 317 314 312 312 312 311 311 310 309 308 307 305 304 303 303 303 302 302 302 302 301 300 299 300 301 300 300 299 297
335 334 334 333 333 334 336 336 336 336 334 333 333 332 330 330 331 331 332 332 332 333 332 330 328 326 324 324 323 322 321 318 315 313 312 311 311 311 311 310 308 306 305 304 303 303 303 302 302 302 302 302 301 301 300 300 300 300 299 300 299 298
335 334 333 335 336 336 336 336 336 336 334 333 333 332 329 329 330 331 332 332 332 331 329 328 326 324 323 322 320 319 317 314 312 311 310 310 310 310 309 307 305 303 302 302 302 302 302 302 302 302 301 301 301 300 300 299 299 299 299 299 299 299
333 333 334 336 336 336 336 335 335 335 334 333 332 331 330 329 330 330 331 331 331 330 328 326 324 322 320 319 317 315 313 312 311 310 309 309 309 308 305 303 302 302 302 302 302 302 301 301 302 301 300 300 300 299 299 299 299 299 298 299 299 299
333 334 335 336 336 336 335 334 334 333 332 332 331 331 330 330 330 331 331 330 330 329 327 325 322 319 317 315 314 313 312 311 309 308 308 308 306 304 302 301 301 301 301 302 301 301 301 301 301 301 300 300 300 299 299 299 299 299 298 298 297 297
334 334 335 335 335 335 334 333 333 332 331 331 331 331 331 331 331 331 330 330 329 327 325 323 319 316 314 312 312 311 310 309 308 307 306 305 303 302 301 301 301 301 301 301 301 301 301 301 300 300 300 300 300 299 299 299 298 298 297 297 297 296
334 333 335 335 334 334 333 332 333 333 332 332 332 332 331 331 331 330 331 330 327 325 323 321 316 313 312 311 310 309 308 307 306 305 303 302 301 301 301 301 300 301 301 301 301 300 300 300 300 300 299 299 299 298 298 298 297 296 296 296 296 296
334 334 335 335 334 333 332 331 332 333 333 333 333 332 332 331 331 331 330 328 325 323 321 318 314 312 310 309 308 307 306 306 304 302 301 300 300 300 300 300 300 300 300 300 300 300 300 299 299 299 299 298 298 297 297 297 296 296 296 296 296 296
334 334 334 334 333 332 331 332 332 332 333 333 332 331 331 331 331 331 328 325 323 320 318 315 312 310 309 307 306 305 304 304 302 300 300 300 300 300 300 300 300 300 300 300 300 299 299 299 298 298 298 297 297 297 297 296 296 295 295 295 295 296
334 334 334 334 333 332 331 331 331 331 332 332 331 331 331 331 330 329 326 323 321 318 315 312 310 309 307 306 304 303 303 302 300 300 299 299 299 299 299 299 299 299 299 299 299 299 298 298 298 297 297 297 296 296 296 295 295 295 295 295 295 295
334 334 333 333 333 331 331 331 331 332 331 330 330 331 331 330 329 326 324 322 320 315 312 310 309 307 306 304 302 302 301 300 299 299 299 299 299 299 299 299 299 299 299 298 298 298 298 297 297 297 296 296 295 295 295 295 295 295 295 295 294 294
334 334 333 332 331 331 332 332 332 331 329 329 330 330 330 329 327 325 323 322 320 315 311 308 307 306 304 302 301 300 300 299 299 299 299 299 299 299 299 299 299 298 298 298 297 297 297 297 297 296 295 295 295 295 295 295 295 294 294 294 294 294

ECMWFFLT2_850_thetae_117.txt.gz
Theta_e
316 316 315 320 326 329 332 332 331 331 329 329 328 326 323 320 319 318 317 316 316 315 314 314 314 314 314 313 312 310 309 308 310 314 315 315 313 312 312 311 311 312 314 316 319 320 322 325 328 329 329 329 329 327 327 326 327 329 330 331 331 331
316 316 316 319 325 329 332 332 332 331 328 328 327 325 322 321 322 322 322 321 319 316 315 316 317 319 318 317 315 314 312 310 309 310 313 315 316 315 313 313 313 313 313 313 314 316 318 321 325 327 326 326 326 327 328 329 330 331 331 331 331 331
316 316 319 325 328 331 333 334 334 331 327 327 326 323 321 322 324 325 326 325 322 320 320 322 325 329 328 325 322 320 317 316 313 310 309 311 315 317 316 315 315 315 314 314 314 314 316 318 320 320 320 323 326 328 329 329 330 331 331 332 332 332
316 318 323 329 333 335 335 335 334 330 327 327 324 321 322 325 325 323 323 324 324 325 327 330 332 333 331 329 329 328 325 323 321 317 312 309 311 313 316 317 317 316 317 317 316 316 315 316 318 321 324 327 329 329 329 330 331 331 332 332 332 332
317 321 328 332 333 335 335 335 333 329 327 326 321 319 324 327 325 322 324 326 327 329 331 333 334 332 329 330 331 331 330 329 327 325 320 316 314 312 312 313 314 315 319 321 322 322 321 322 324 327 329 329 329 329 330 331 331 331 332 332 332 332
318 324 330 333 333 334 335 334 331 329 328 325 320 322 327 326 324 325 328 331 332 332 333 333 333 331 330 331 331 332 331 331 330 329 327 324 321 319 316 314 313 314 319 323 325 325 325 326 327 328 328 329 329 330 330 331 331 332 332 332 332 332
320 326 332 334 334 335 334 332 329 329 328 324 320 324 329 325 326 331 332 333 334 333 333 332 332 332 332 332 332 331 330 331 330 331 331 329 327 326 325 323 322 322 323 326 327 327 328 328 328 329 330 330 330 330 331 331 332 332 332 333 332 332
324 329 333 334 334 334 334 332 329 329 327 323 323 327 330 323 325 333 334 333 334 334 334 332 332 332 332 332 331 330 330 330 330 331 332 332 331 330 329 329 329 329 330 330 331 331 331 331 331 331 331 331 330 331 331 331 332 332 332 332 332 331
328 330 333 333 333 333 333 332 330 329 325 323 327 331 331 324 323 332 334 333 334 334 333 333 333 332 332 332 331 330 330 330 330 330 331 332 332 332 332 331 331 332 332 332 332 332 332 331 331 331 330 330 330 330 330 330 330 331 331 331 331 330
329 330 333 333 333 334 333 331 330 328 323 324 331 333 331 326 324 330 334 334 333 333 332 333 333 331 331 333 332 332 331 330 330 330 330 330 331 331 331 331 331 331 331 331 331 331 331 331 331 330 329 328 328 328 328 329 329 329 329 329 329 328
329 328 331 332 332 333 331 331 329 325 324 329 334 334 331 328 327 332 335 333 333 334 332 332 332 332 332 332 332 332 331 331 331 330 330 329 330 330 330 330 329 330 330 331 331 330 330 330 329 328 327 327 327 327 328 328 328 328 327 327 327 327
327 325 330 332 331 331 329 330 328 325 327 331 333 332 330 328 330 334 334 334 334 334 333 332 332 332 332 332 331 331 331 330 331 331 330 330 330 330 330 330 330 330 330 329 329 329 328 328 328 327 327 327 326 326 327 326 326 326 326 326 327 328
325 323 326 329 329 328 329 329 327 327 330 331 332 332 330 330 333 335 334 335 335 333 333 333 332 332 332 332 331 331 331 330 330 330 330 330 330 330 330 329 329 329 329 329 329 328 328 327 327 327 327 327 326 326 326 325 325 325 326 327 327 328
324 324 324 326 328 328 328 328 329 331 332 332 332 332 331 332 334 334 334 335 334 333 333 332 331 332 333 332 331 331 331 330 330 330 331 331 330 330 329 329 329 329 329 329 328 327 327 326 326 326 326 326 326 325 325 325 325 325 326 327 327 328
327 327 326 326 328 327 327 328 331 332 332 332 332 332 333 333 333 334 334 334 333 332 332 331 331 331 332 332 332 331 330 331 331 330 330 330 329 329 329 329 329 328 328 327 327 326 326 325 325 325 325 325 324 324 324 324 325 325 326 326 327 327
330 331 331 329 327 327 327 329 331 332 332 332 332 333 333 332 333 334 333 333 332 331 331 331 331 331 331 331 332 331 331 331 330 330 329 329 328 328 328 328 328 328 327 326 326 325 325 325 324 324 324 323 322 323 323 324 325 325 325 326 326 325
334 334 333 329 326 327 329 329 331 332 332 333 333 333 332 332 333 333 333 332 332 331 330 331 332 332 331 331 332 332 331 330 329 329 329 329 329 328 328 327 327 326 325 324 324 324 324 323 323 323 322 320 321 322 323 324 324 324 324 324 323 323
335 333 330 328 328 329 329 330 331 332 333 334 334 334 333 332 332 333 333 332 331 330 329 330 332 332 333 332 332 332 331 330 330 330 330 329 329 328 326 325 325 324 323 322 321 321 320 319 319 319 318 319 321 322 322 322 322 322 322 321 321 320
335 329 326 326 327 330 330 331 332 333 334 334 334 334 333 332 333 333 333 332 331 329 328 329 331 332 333 333 332 331 331 331 331 330 330 329 328 327 326 325 323 321 320 318 317 316 314 314 314 315 317 319 320 321 321 320 320 320 319 317 315 311
331 326 326 327 327 330 332 333 334 334 334 334 334 334 333 333 334 334 333 332 329 328 328 330 331 333 333 332 331 331 331 331 331 331 330 328 327 326 325 323 320 317 316 314 313 312 312 312 312 314 317 318 319 320 319 318 318 317 314 309 305 302
328 326 328 330 330 332 333 334 334 334 334 334 334 334 333 334 334 334 333 330 328 328 329 331 332 332 332 331 331 331 331 330 330 330 329 327 326 325 322 319 316 314 312 312 311 311 310 310 311 314 316 318 319 319 319 319 316 312 307 303 300 299
330 329 329 329 331 333 334 334 334 334 334 334 334 334 334 334 334 333 331 330 329 328 328 330 332 332 332 332 332 331 330 328 328 327 326 325 324 320 318 315 313 312 311 310 309 308 308 308 309 311 312 316 319 319 319 316 310 305 302 299 299 299
332 332 330 330 331 333 333 333 334 334 335 334 334 334 334 334 333 331 330 330 329 328 329 331 332 332 333 332 332 330 329 327 325 325 324 322 319 315 314 312 311 311 309 308 306 305 305 304 306 308 311 316 317 317 315 308 303 303 300 298 299 299
333 332 332 332 332 333 333 334 335 335 335 335 335 334 334 334 333 332 331 330 329 329 331 332 332 333 332 331 330 328 327 326 324 323 321 317 314 312 311 311 310 308 306 304 304 303 303 302 303 305 308 311 311 311 310 304 302 301 298 299 298 298
334 333 333 333 334 334 334 335 335 335 335 335 335 334 334 333 333 332 331 329 329 331 331 332 333 332 331 329 327 326 325 324 322 319 316 313 311 311 310 309 307 305 303 303 302 302 302 302 302 303 303 304 305 306 303 302 303 300 297 298 298 297
335 333 333 334 334 334 334 335 334 334 335 334 334 334 333 332 332 331 330 329 330 331 332 332 332 330 328 326 325 324 323 320 317 315 313 311 310 309 308 306 304 302 302 302 302 302 303 302 302 302 302 302 303 302 300 299 303 302 298 297 297 297
335 334 334 334 334 334 334 334 334 334 334 334 333 333 332 331 331 331 330 330 331 331 332 332 330 328 327 324 323 321 318 315 313 312 311 310 309 307 305 303 302 302 302 302 301 302 302 302 302 302 301 301 300 300 300 299 300 302 301 299 297 297
335 335 334 334 334 334 334 334 334 334 334 334 332 333 333 331 330 330 330 330 331 331 331 330 328 327 325 323 320 317 314 312 311 310 310 308 307 304 302 302 301 301 301 301 302 302 302 302 302 301 300 300 300 299 299 299 299 299 300 301 298 296
334 334 334 334 334 334 334 334 334 334 334 334 333 333 332 330 329 329 330 331 331 331 330 329 327 325 323 320 316 313 311 310 309 309 308 306 303 302 301 301 301 301 301 301 302 301 302 301 301 301 300 299 299 299 299 299 299 298 298 299 298 296
334 335 335 334 333 334 335 334 334 334 331 330 332 333 331 330 330 330 331 331 331 330 329 327 326 323 320 316 313 311 310 309 308 307 305 303 301 301 301 301 301 301 301 301 301 301 301 301 300 300 300 300 299 299 299 299 298 298 298 298 297 296
334 334 334 334 333 334 334 334 334 333 329 329 331 332 331 330 330 330 331 330 330 330 327 326 323 320 316 313 311 310 308 307 306 304 302 301 300 300 300 300 300 301 301 301 301 300 301 300 300 300 300 300 299 299 299 298 298 298 297 297 297 297
333 333 334 333 333 334 334 333 333 332 332 332 332 331 331 331 331 331 330 330 330 328 325 323 321 316 313 311 310 308 307 306 303 301 300 300 300 300 300 300 300 300 301 301 300 300 300 300 300 300 300 299 299 299 298 298 297 297 297 297 297 296
332 333 333 333 334 334 333 333 333 332 333 333 332 332 332 332 331 331 330 330 329 325 323 322 318 314 311 310 308 306 305 303 301 300 300 299 300 300 300 300 300 300 300 300 300 300 300 300 300 299 299 299 298 298 298 297 297 297 297 296 296 296
333 333 333 333 334 333 333 332 332 332 332 332 332 333 332 331 331 330 330 329 327 323 321 319 315 312 310 308 306 305 303 301 300 299 299 299 299 300 299 300 300 300 300 300 300 300 300 299 299 299 299 298 298 298 297 297 297 296 296 296 296 296
334 334 333 333 333 334 333 332 331 331 331 332 332 332 332 331 330 329 329 327 324 322 320 316 313 310 308 307 305 303 301 299 299 299 299 299 299 299 299 299 300 300 300 300 299 299 299 299 299 299 298 298 297 297 297 296 296 296 295 295 295 295
334 334 333 333 334 334 333 332 331 331 331 331 332 332 331 330 329 329 328 326 323 322 318 314 311 308 307 305 303 301 300 299 298 298 298 299 299 299 299 299 299 299 299 299 299 299 299 298 299 298 298 297 297 297 296 296 296 295 295 295 295 295
333 333 333 333 334 333 332 332 331 331 330 331 331 330 330 329 328 328 327 324 323 321 317 311 309 307 305 304 301 299 299 298 298 298 298 298 299 299 299 299 299 299 299 298 298 298 298 298 298 298 297 297 296 296 296 295 295 295 295 295 295 295

ECMWFFLT2_850_thetae_123.txt.gz
Theta_e
337 338 339 337 337 338 335 331 332 333 333 333 331 329 325 319 316 317 315 313 313 313 316 318 316 312 308 308 310 312 313 313 313 311 311 310 309 309 309 310 313 315 316 318 319 320 319 320 320 319 317 316 321 331 333 332 333 333 332 332 333 332
337 338 337 336 338 339 335 330 333 334 333 333 331 328 323 319 318 316 316 318 320 322 327 331 329 324 319 313 309 310 312 314 315 315 313 312 311 310 309 309 310 312 312 313 314 317 321 324 325 322 320 324 330 334 333 334 334 332 333 333 333 332
338 338 336 337 339 339 335 331 335 336 335 333 330 328 325 324 323 319 323 328 327 328 333 336 334 331 331 326 319 314 310 310 313 314 316 314 314 313 311 311 311 311 313 316 321 325 329 331 330 329 328 331 334 334 334 335 334 333 334 334 333 332
339 337 337 339 339 340 336 334 338 338 337 334 330 331 330 331 332 328 330 330 328 332 337 336 333 333 336 336 333 327 321 318 314 312 317 317 316 316 315 316 314 315 323 328 329 330 332 332 330 330 332 333 334 335 335 335 334 335 335 333 332 331
339 338 339 339 340 340 337 337 340 340 339 336 333 335 334 332 332 330 329 329 329 333 337 337 336 337 336 335 336 335 333 332 327 323 326 327 325 323 322 325 325 325 330 331 331 330 330 331 331 332 334 335 336 336 335 334 335 335 334 332 331 330
338 338 339 339 339 339 338 339 341 341 339 337 335 335 335 332 327 326 327 328 330 333 338 339 337 336 336 335 335 336 336 336 336 334 334 335 334 333 331 331 332 332 331 331 331 331 331 332 333 335 335 336 336 336 336 335 335 335 332 330 331 329
337 338 340 338 339 339 338 340 341 340 338 337 335 333 334 332 326 327 329 330 333 337 340 340 338 337 336 338 337 337 338 338 338 338 338 338 335 335 336 333 334 333 332 333 333 333 334 335 336 336 336 336 336 336 336 335 336 336 332 328 328 327
337 338 339 337 338 338 339 341 340 338 337 336 334 332 333 330 328 330 332 335 337 339 341 341 341 339 336 337 336 335 338 340 339 339 338 338 337 337 337 336 335 335 334 334 334 335 336 336 337 337 337 336 336 335 335 335 335 335 332 328 326 324
337 338 338 335 336 338 339 339 338 337 336 331 330 333 332 328 331 334 334 336 336 337 341 342 341 339 336 335 334 333 336 339 339 339 338 338 338 337 337 336 334 335 336 335 335 336 335 336 336 336 337 336 335 334 333 333 333 333 332 329 326 323
337 338 336 333 336 338 337 337 336 335 333 327 328 332 330 328 333 337 335 335 337 338 339 341 341 340 337 334 334 333 334 337 338 338 338 338 338 337 337 336 334 335 336 335 335 335 335 336 335 335 335 334 333 333 331 331 330 331 332 329 327 324
337 337 336 333 335 336 335 335 335 334 330 327 328 329 330 331 333 337 336 335 337 338 337 339 340 339 337 334 334 334 334 337 336 335 337 338 338 338 337 337 337 336 336 336 336 335 335 334 334 334 333 332 332 331 329 327 326 327 329 329 327 325
336 337 336 334 334 334 333 335 335 334 331 327 326 327 330 332 333 336 336 334 336 336 335 335 336 336 336 334 334 334 334 335 335 335 337 338 338 337 338 336 336 335 333 335 335 334 334 333 333 333 331 330 329 329 328 326 325 325 327 327 326 326
336 333 334 335 334 333 333 335 334 333 331 326 325 329 330 333 335 334 334 335 335 335 334 334 335 335 336 335 334 334 333 333 335 335 334 334 336 337 337 335 334 333 332 333 334 333 333 332 332 331 329 328 327 327 327 326 325 325 326 326 326 325
335 331 332 334 333 333 334 334 333 332 329 325 327 330 331 335 335 334 335 336 335 334 334 334 336 336 336 336 334 333 334 334 333 333 333 332 334 335 335 334 333 334 332 332 333 333 332 331 330 329 327 326 325 324 324 324 324 324 325 325 324 324
335 331 330 331 331 332 333 332 333 333 329 327 330 332 334 336 335 335 338 338 335 334 334 334 336 336 336 337 336 334 335 335 332 334 334 331 332 333 333 333 332 333 333 332 332 332 331 330 329 327 325 324 323 322 322 322 323 322 322 322 322 322
335 332 330 331 331 331 331 332 333 332 328 328 333 335 335 335 335 335 338 338 335 334 334 335 335 335 336 338 337 334 333 333 331 332 332 330 332 333 332 332 328 328 331 332 331 330 330 329 327 326 324 323 322 321 321 321 322 321 321 321 319 315
332 331 332 333 333 332 332 333 334 331 329 331 335 337 335 334 335 336 337 336 333 335 335 335 336 335 335 337 336 334 332 331 331 332 331 331 332 331 331 332 327 324 327 331 331 330 329 327 325 324 323 322 320 321 321 320 320 320 319 316 310 305
332 332 333 334 335 336 336 335 334 332 332 335 336 335 333 333 335 335 336 335 333 335 335 336 336 334 334 334 334 333 332 331 331 332 331 331 332 331 331 331 328 322 322 329 330 329 328 325 322 321 320 319 320 320 320 319 319 317 312 306 302 301
334 335 336 336 337 337 337 336 335 335 336 336 334 331 331 334 336 336 336 335 335 335 335 335 336 335 334 333 333 333 332 331 331 331 331 332 331 330 330 327 324 319 317 326 330 329 325 321 319 318 318 318 319 319 319 319 316 310 304 300 300 301
336 338 339 337 337 337 337 337 337 336 335 333 330 330 332 335 337 336 336 335 335 335 334 334 335 335 333 332 333 333 332 332 332 332 332 332 330 329 328 321 318 315 313 320 328 326 321 316 315 316 317 317 318 318 318 314 308 303 300 300 300 300
337 339 339 338 337 338 337 337 337 336 335 331 330 331 334 336 337 335 335 335 335 334 332 332 334 335 333 333 334 333 333 332 332 331 332 331 328 326 323 316 314 312 311 320 327 323 316 315 316 315 316 317 316 316 314 307 302 300 300 300 299 299
338 338 338 338 338 338 338 338 337 334 333 332 331 332 335 336 336 335 335 335 335 334 333 333 334 335 334 334 334 333 333 332 331 330 329 328 324 320 317 313 312 312 312 321 328 324 318 319 322 320 319 319 316 315 312 306 300 300 300 299 299 299
339 339 338 338 339 339 338 337 334 330 330 332 332 334 335 335 335 335 335 335 335 335 334 334 334 334 333 333 333 332 331 330 329 328 325 323 319 316 314 312 313 313 311 314 320 322 320 323 327 325 323 323 320 318 317 312 303 299 300 299 299 299
338 339 338 338 339 338 336 335 331 329 330 333 334 335 335 334 335 335 335 334 334 333 333 334 333 332 332 331 331 330 329 328 326 325 322 318 315 313 312 311 311 310 312 315 315 313 311 318 328 327 324 326 324 321 322 318 309 301 301 301 300 300
338 337 337 337 338 336 334 333 332 330 331 333 334 334 334 333 334 335 334 333 332 331 331 332 332 332 330 329 328 328 327 326 323 321 317 314 313 312 311 310 308 305 310 315 312 304 302 312 324 326 325 327 324 323 322 317 312 306 304 303 302 301
337 336 335 336 335 333 334 333 331 331 330 330 332 333 333 333 333 333 332 332 332 331 331 332 332 331 329 328 327 326 325 323 320 316 314 313 312 311 309 307 305 303 304 307 304 302 302 306 314 318 321 323 321 322 318 313 313 311 307 307 305 301
335 335 334 335 334 333 333 332 330 330 327 326 330 333 333 333 333 332 331 331 331 332 332 332 331 330 328 327 325 324 322 319 316 313 312 312 310 309 307 304 303 303 303 302 302 305 304 302 305 307 310 311 310 311 310 311 316 314 311 312 309 306
334 335 335 334 333 333 332 331 330 329 325 327 332 334 333 333 333 332 330 330 331 332 332 331 330 328 327 325 323 322 319 314 313 312 311 310 308 305 303 303 303 303 302 302 303 305 304 303 302 301 302 302 301 302 303 307 313 314 313 314 311 309
334 335 335 333 333 333 332 330 330 328 328 332 334 332 332 332 332 331 330 329 330 332 331 330 329 327 326 324 322 319 315 312 311 311 309 307 304 303 302 302 302 302 302 302 302 302 302 302 302 302 302 302 302 301 301 302 306 310 312 312 310 309
334 335 334 333 333 334 331 328 328 329 332 334 333 330 330 330 328 328 329 330 331 331 330 329 328 325 324 322 319 316 312 311 310 309 306 304 302 302 302 302 302 301 301 301 301 301 301 301 301 302 303 306 308 308 307 306 306 309 310 310 310 308
335 335 335 334 334 335 331 327 329 331 333 333 331 330 330 328 326 327 329 330 331 330 328 327 326 324 322 319 316 313 310 310 308 305 303 302 302 302 301 301 301 301 301 301 301 301 301 301 300 300 301 304 306 306 307 307 306 309 310 310 310 309
336 336 336 335 335 334 331 330 332 333 333 332 330 329 331 329 327 327 329 330 330 328 326 325 324 322 320 316 313 311 309 308 305 303 302 301 301 301 301 301 300 300 300 300 300 300 300 300 300 300 300 300 301 300 301 301 301 304 307 309 310 309
337 336 336 335 335 335 333 332 334 334 333 332 331 331 332 330 328 328 329 330 329 327 325 324 322 321 318 314 311 309 308 306 303 302 301 301 301 301 301 300 300 300 300 300 300 300 300 300 299 299 299 299 299 299 299 299 299 299 303 306 307 308
338 337 336 335 335 335 334 333 334 334 332 332 333 332 332 331 329 330 330 330 328 326 324 323 321 319 315 311 310 308 306 304 302 301 301 300 300 300 300 300 300 300 300 300 300 299 299 299 299 299 299 299 299 299 298 299 299 298 299 301 301 304
338 338 337 336 335 334 334 334 335 333 332 333 332 330 331 331 330 330 329 329 327 326 324 322 320 317 313 311 309 307 305 302 301 300 300 300 300 300 300 300 300 299 299 299 299 299 299 299 299 299 299 299 299 299 299 298 299 298 298 298 298 300
338 338 337 336 335 334 334 335 334 333 332 332 330 329 331 331 330 330 328 328 328 326 323 322 319 315 312 310 308 306 303 301 300 300 300 300 300 300 300 299 299 299 299 299 299 299 299 299 299 299 298 299 298 298 298 298 298 298 297 297 297 298
338 337 336 336 335 334 335 335 334 333 331 329 329 330 331 330 330 329 328 329 328 325 322 321 319 314 311 309 307 304 301 300 300 300 300 300 299 299 299 299 299 299 299 299 298 298 298 298 298 298 298 298 298 298 298 298 298 297 298 297 297 297